GEFSSE_850_meantemp_108.txt.gz
Temperature
17 17 16 15 15 14 14 13 13 13 13 12 12 12 12 11 11 11 11 12 12 12 12 12 12 12 12 13 13 13 13 13 13 13 13 13 13 13 13 13 14 14 14
18 17 16 16 14 14 14 13 13 13 12 12 12 12 11 11 11 11 11 11 11 11 11 11 12 12 12 13 13 13 13 12 12 12 12 12 12 12 12 13 13 13 13
18 18 16 15 15 14 14 13 13 12 12 12 12 11 11 11 11 11 11 11 11 11 11 11 12 12 12 13 13 13 13 12 11 11 11 12 12 12 12 12 12 12 12
18 17 16 16 15 14 13 13 13 12 12 12 11 11 11 11 11 11 11 11 11 11 11 11 12 12 13 13 13 13 13 12 11 11 11 11 11 11 11 11 11 12 12
17 17 17 16 15 14 13 13 13 12 12 11 11 11 10 10 11 11 11 11 11 12 11 11 12 12 12 13 13 13 12 12 11 11 11 11 11 10 10 11 11 11 11
17 17 17 16 15 14 13 13 13 12 12 11 11 11 10 11 11 11 11 11 11 11 11 11 12 12 12 12 13 12 12 12 11 11 11 11 11 10 10 10 11 11 11
17 17 17 16 15 14 13 13 12 12 12 11 11 10 10 11 11 11 11 11 11 11 11 11 11 12 12 12 12 12 12 12 11 11 11 11 11 10 10 10 10 10 10
17 17 17 16 15 14 13 13 13 12 11 11 11 10 10 11 11 11 11 11 11 11 11 11 11 11 12 12 12 12 11 11 11 10 11 11 11 10 10 10 10 10 10
17 17 17 16 15 14 13 13 12 12 11 11 11 10 11 11 11 11 11 11 11 11 11 11 11 11 11 11 11 11 11 10 10 10 10 11 10 10 10 9 9 9 9
16 16 17 16 15 14 13 12 12 12 11 11 11 11 11 11 10 10 11 11 11 10 10 10 10 10 10 10 10 10 10 10 9 9 10 10 10 10 10 9 9 9 9
16 16 16 16 15 14 13 12 12 12 11 11 11 10 10 10 10 10 10 10 10 10 10 10 10 10 10 9 9 9 9 9 9 9 9 9 9 10 9 9 9 9 9
17 16 15 15 15 14 13 12 12 11 11 11 11 10 10 10 9 9 9 10 10 10 9 9 9 9 9 9 8 9 9 8 8 8 8 9 9 9 9 9 9 9 9
17 16 15 15 14 14 13 12 12 11 11 11 10 10 10 9 9 9 9 9 9 9 9 9 9 9 8 8 8 8 8 8 8 8 8 8 8 9 9 9 9 8 8
17 17 16 15 14 14 13 12 12 11 11 11 10 10 10 10 9 9 9 9 9 9 9 9 9 9 8 8 8 8 8 8 8 8 8 8 8 8 9 9 8 8 8
17 17 16 15 14 14 13 12 12 11 11 11 10 10 10 10 10 9 9 9 9 9 9 9 9 9 8 8 8 8 8 8 8 8 7 8 8 8 8 8 8 8 8
18 17 16 15 14 14 13 13 12 12 11 11 10 10 10 10 10 9 9 9 9 9 9 9 9 9 9 8 8 8 8 8 8 8 8 8 8 8 8 8 8 8 7
19 17 16 15 14 14 13 13 12 12 11 11 10 10 10 10 9 9 9 9 9 9 9 9 9 9 9 8 8 8 8 8 8 8 8 8 7 7 7 8 8 8 7
19 18 16 15 14 14 13 13 12 12 11 11 10 10 10 10 10 10 9 9 9 9 9 9 9 9 8 8 8 8 8 8 8 8 8 7 7 7 7 7 7 7 7
19 18 17 16 15 14 13 13 12 11 11 11 10 10 10 10 10 10 9 9 9 9 9 9 9 9 8 8 8 8 8 8 8 8 8 7 7 7 7 7 7 7 7
19 18 17 16 15 14 13 12 12 11 11 11 11 10 10 10 10 10 10 9 9 9 9 9 9 8 8 8 8 8 9 8 8 8 7 7 7 6 6 6 6 6 6
18 18 17 16 15 14 13 13 12 12 11 11 11 11 10 10 10 10 9 9 9 9 9 9 9 8 8 8 8 8 8 8 8 7 7 7 6 6 6 6 5 5 5
18 17 17 16 15 14 14 14 13 12 11 11 11 11 10 10 10 10 10 9 9 9 9 9 9 8 8 8 7 7 7 7 7 7 7 7 6 6 6 5 5 5 5
18 17 16 16 15 14 14 13 12 11 11 11 10 10 10 10 10 10 10 10 9 9 9 9 9 8 8 7 7 7 6 6 7 7 6 6 6 5 5 5 5 5 5
17 17 16 15 15 14 14 13 12 12 11 11 11 11 10 10 10 10 10 10 9 9 9 9 9 8 8 7 7 6 6 5 5 5 6 6 5 5 5 5 5 5 4
16 16 15 15 14 14 13 13 12 12 11 11 11 10 10 10 10 10 10 10 9 9 9 9 8 8 8 7 7 6 6 5 5 4 4 5 5 5 5 5 5 4 4
15 15 14 14 13 13 13 12 12 11 11 11 10 10 10 10 10 10 10 10 9 9 9 9 8 8 8 7 7 6 6 5 5 4 3 4 4 5 5 5 4 4 3

GEFSSE_850_meantemp_114.txt.gz
Temperature
16 15 14 14 14 14 13 13 13 13 13 13 13 13 12 12 12 12 12 12 12 12 12 12 12 12 12 12 12 12 12 13 13 13 13 13 13 13 13 13 13 13 13
17 16 14 14 14 14 13 13 13 13 13 13 13 12 12 12 12 12 12 12 12 12 12 12 12 12 12 12 12 12 12 13 13 13 13 13 12 12 12 12 12 12 13
17 16 15 14 14 14 13 13 13 13 13 12 12 12 12 12 12 12 12 12 12 12 12 12 12 13 12 12 12 11 11 12 13 13 13 12 12 11 11 11 12 12 12
17 16 15 14 14 14 13 13 13 13 13 12 12 12 12 12 12 12 12 12 12 12 12 12 13 13 13 12 12 11 11 12 12 12 12 12 11 10 10 11 11 11 11
17 17 16 15 14 14 13 13 13 12 12 12 12 12 12 12 11 12 12 12 12 12 12 12 12 12 13 12 12 11 12 12 12 12 12 11 11 10 10 10 10 10 10
18 17 16 15 14 14 13 13 13 13 13 12 12 12 12 11 12 12 12 12 12 12 12 12 12 12 12 12 12 12 12 12 12 11 11 11 10 9 9 9 9 9 10
18 17 16 15 14 14 13 13 13 13 12 12 12 12 12 12 12 12 12 12 12 12 12 12 12 12 12 12 11 11 11 11 11 11 11 10 10 9 9 9 9 9 9
19 17 16 15 15 14 13 13 13 13 12 12 12 12 12 12 12 12 12 12 12 12 11 11 11 11 11 11 11 11 10 10 10 10 10 10 9 9 9 9 9 9 9
18 18 17 16 15 14 14 13 13 13 12 12 12 12 12 12 12 12 12 12 12 11 11 11 11 11 11 11 10 10 10 10 10 10 9 9 9 9 8 9 9 9 9
18 17 17 16 15 14 14 13 13 12 12 12 12 12 12 12 12 11 11 11 11 11 11 11 11 10 10 10 10 9 9 9 9 9 9 9 9 8 8 8 8 8 8
17 17 17 16 16 15 14 13 13 12 12 12 12 12 11 11 11 11 11 11 11 11 10 10 10 10 10 10 9 9 9 9 9 9 9 8 8 8 8 8 8 8 8
18 17 17 17 16 15 14 14 13 12 12 12 12 12 11 11 11 11 11 10 10 10 10 10 10 9 9 9 9 9 9 8 8 8 8 8 8 8 8 8 8 8 8
19 18 17 17 16 16 15 14 13 13 12 12 12 11 11 11 11 10 10 10 10 10 10 9 9 9 9 9 9 9 8 8 8 8 8 8 8 8 8 8 8 8 8
19 19 18 17 17 16 15 15 14 13 13 12 12 11 11 11 11 10 10 10 10 10 9 9 9 9 9 9 9 8 8 8 8 8 8 8 8 8 8 7 7 7 7
19 18 18 17 17 16 15 15 14 14 13 12 12 11 11 11 11 10 10 10 9 9 9 9 9 9 9 9 9 9 8 8 8 8 8 8 8 8 7 7 7 7 7
19 19 18 17 17 16 16 15 15 14 13 12 12 11 11 11 10 10 10 10 9 9 9 9 9 9 9 9 9 9 9 9 8 8 8 8 8 7 7 7 7 6 6
19 19 18 18 17 16 16 15 15 14 13 13 12 11 11 10 10 10 10 10 9 9 9 9 9 9 9 9 9 9 9 9 9 8 8 8 7 7 7 7 7 6 6
19 19 18 17 17 16 16 15 14 14 13 13 12 11 11 10 10 10 10 10 9 9 9 9 9 9 9 9 9 9 9 9 9 8 8 8 7 7 7 7 6 6 6
20 19 18 18 17 16 16 15 14 14 13 12 12 11 11 10 10 10 10 10 9 9 9 9 9 9 9 9 9 9 9 9 8 8 8 7 7 7 7 6 6 6 6
20 20 19 18 17 17 15 14 13 13 12 12 12 11 11 10 10 10 10 10 9 9 9 9 9 9 9 9 9 9 9 9 8 8 7 7 7 7 6 6 6 6 6
20 20 19 18 17 16 15 14 13 13 12 12 11 11 11 10 10 10 10 10 9 9 9 9 9 9 9 9 9 9 9 8 8 8 7 7 7 6 6 6 6 6 5
20 20 19 19 18 17 16 15 15 14 13 12 11 11 11 10 10 10 10 10 9 9 9 9 9 9 9 9 9 9 8 8 8 7 7 7 6 6 6 6 6 5 5
20 20 20 19 18 17 17 15 14 12 12 11 11 11 11 10 10 10 10 10 9 9 9 9 9 9 9 9 9 8 8 8 7 7 7 7 6 6 6 6 5 5 5
20 20 20 19 18 18 16 15 14 13 12 12 12 11 11 10 10 10 10 10 9 9 9 9 9 9 9 9 8 8 8 7 7 7 7 6 6 6 6 5 5 5 4
20 20 19 19 18 17 16 15 14 14 13 13 12 11 11 10 10 10 10 10 9 9 9 9 9 9 9 9 8 8 8 7 7 6 6 6 6 6 5 5 5 4 4
19 19 19 18 17 17 16 15 14 14 13 12 12 11 11 10 10 10 10 10 10 9 9 9 9 9 9 9 8 8 7 7 6 6 5 6 6 6 5 5 5 4 4

GEFSSE_850_meantemp_120.txt.gz
Temperature
17 16 14 14 14 14 13 13 13 13 13 13 13 13 12 12 12 12 12 12 12 12 12 12 13 12 12 12 12 12 13 13 13 13 13 13 12 12 12 13 13 13 13
19 17 15 14 14 14 13 13 13 13 13 13 13 12 12 12 12 12 12 12 12 12 12 12 12 11 11 11 12 12 12 13 13 13 13 12 12 12 12 12 12 12 12
19 17 15 14 14 13 13 13 13 13 13 13 13 12 12 12 12 12 12 12 12 12 11 11 11 11 11 11 11 12 12 13 13 13 12 12 11 11 11 11 11 11 11
18 17 15 14 14 14 13 13 13 13 13 12 12 12 12 12 12 11 11 11 11 11 12 12 11 11 11 11 11 11 12 12 12 12 12 11 10 10 10 10 10 10 10
18 17 15 14 14 14 13 13 13 12 12 12 12 12 12 12 11 11 11 11 11 11 12 12 11 11 11 11 11 12 12 12 12 11 11 11 10 9 9 9 9 9 10
18 16 15 14 14 14 13 13 13 12 12 12 12 12 11 11 11 11 11 11 12 11 11 11 11 11 11 11 11 11 11 11 11 11 11 10 10 9 9 9 9 9 9
18 16 15 15 14 14 13 13 13 12 12 12 12 12 11 11 11 12 12 12 11 11 11 11 11 11 11 11 11 11 11 11 10 10 10 10 9 9 9 9 9 9 9
18 16 15 14 14 14 13 13 13 12 12 12 12 11 11 11 12 12 12 11 11 11 11 11 11 11 10 10 10 10 10 10 10 10 9 9 9 8 8 9 9 9 9
17 16 15 14 14 14 13 13 13 13 12 12 12 12 12 12 11 11 11 11 11 11 11 11 10 10 10 10 10 10 10 9 9 9 9 9 9 8 8 8 8 8 9
16 16 15 15 14 14 13 13 13 13 12 12 12 12 12 12 11 11 11 11 11 11 10 10 10 10 10 9 9 9 9 9 9 9 9 9 8 8 8 8 8 8 8
16 16 15 15 14 14 13 13 13 12 12 12 12 12 12 12 11 11 11 11 10 10 10 10 10 10 9 9 9 9 9 9 9 8 8 8 8 8 8 8 8 8 8
17 16 16 15 15 14 14 13 13 12 12 12 12 12 12 11 11 11 11 11 10 10 10 10 9 9 9 9 9 9 9 9 8 8 8 8 8 8 8 8 8 8 8
19 17 17 16 15 14 14 13 13 13 12 12 12 12 11 11 11 11 10 10 10 10 9 9 9 9 9 9 9 9 9 8 8 8 8 8 8 7 7 7 7 7 7
19 18 17 16 15 15 14 14 14 13 13 12 12 12 11 11 11 11 10 10 10 9 9 9 9 9 9 9 9 9 9 8 8 8 8 8 8 7 7 7 7 7 7
19 18 18 17 16 15 15 14 14 13 13 13 12 12 11 11 11 10 10 10 9 9 9 9 9 9 9 9 9 9 9 9 8 8 8 8 8 8 7 7 7 6 6
19 19 18 17 17 16 15 15 14 14 13 13 12 12 11 11 11 10 10 10 9 9 9 9 9 9 9 9 9 9 9 9 9 8 8 8 8 8 7 7 6 6 6
20 19 18 18 17 16 15 15 15 14 13 13 13 12 11 11 10 10 10 10 9 9 9 9 9 9 9 9 9 9 9 9 9 8 8 8 8 8 7 7 7 6 6
20 19 19 18 17 16 16 15 15 14 14 13 13 12 11 11 10 10 10 10 9 9 9 9 9 9 9 9 9 9 9 9 8 8 8 8 8 7 7 7 7 7 6
20 19 19 18 18 17 16 15 14 14 14 13 13 12 12 11 11 10 10 9 9 9 9 9 9 9 9 9 9 9 9 9 8 8 8 8 7 7 7 7 7 7 7
19 19 19 18 18 17 16 14 13 13 13 13 13 12 12 11 11 10 10 9 9 9 9 9 9 9 9 9 9 9 9 8 8 8 8 8 7 7 7 7 7 7 6
19 19 18 18 18 17 15 15 14 14 14 13 13 12 12 11 11 10 10 10 9 9 9 9 9 9 9 8 8 9 9 8 8 8 8 7 7 7 7 7 6 6 6
19 19 19 19 18 17 17 17 16 15 14 13 13 12 12 11 11 10 10 10 9 9 9 9 9 9 9 8 8 8 8 8 8 8 8 7 7 7 7 6 6 6 6
19 19 19 19 19 18 18 16 15 13 12 12 12 12 12 11 11 10 10 10 10 9 9 9 9 9 9 9 8 8 8 8 8 8 7 7 7 7 6 6 6 6 6
20 20 19 19 19 19 18 17 16 14 14 14 14 13 12 12 11 11 10 10 10 9 9 9 9 9 9 9 8 8 8 8 8 8 7 7 7 6 6 6 6 6 5
20 20 20 19 19 19 18 17 17 16 16 15 14 13 12 11 11 11 10 10 10 10 9 9 9 9 9 9 8 8 8 8 8 7 7 7 7 6 6 6 6 5 5
20 20 20 19 19 19 18 17 17 17 16 15 14 13 12 12 11 11 10 10 10 10 9 9 9 9 9 9 8 8 8 8 8 7 7 7 7 7 6 6 5 5 5

GEFSSE_850_meantemp_126.txt.gz
Temperature
18 17 16 15 15 15 15 15 14 14 14 14 14 14 14 14 14 14 14 14 14 14 13 13 13 13 13 13 13 14 14 14 14 14 14 14 13 13 13 14 13 13 14
19 17 16 15 15 15 15 14 14 14 14 14 13 13 13 13 13 13 13 13 13 13 13 12 12 12 12 13 13 13 14 14 14 14 13 13 13 12 13 13 13 13 13
19 17 16 15 15 14 14 14 14 14 14 13 13 13 13 13 13 13 12 12 12 12 12 12 12 12 12 12 13 13 14 14 14 13 12 11 11 11 11 12 12 12 12
18 17 15 15 14 14 14 14 14 14 13 13 13 13 12 12 12 12 12 12 12 12 12 12 12 12 12 12 13 13 13 13 13 12 11 10 10 10 10 11 11 11 11
17 16 15 15 14 14 14 14 13 13 13 13 13 12 12 12 12 12 12 12 12 12 12 12 11 11 12 12 13 13 13 13 13 11 11 10 10 10 10 10 10 10 10
16 15 15 14 14 14 14 14 13 13 13 13 13 12 12 12 12 12 11 12 12 12 11 11 11 11 11 12 12 12 12 12 11 10 10 10 10 9 9 10 10 10 10
16 15 14 14 14 14 14 13 13 13 13 13 12 12 12 11 11 12 11 11 11 11 11 11 11 11 11 11 11 11 11 11 10 10 10 9 9 9 9 9 10 10 10
16 15 14 14 14 14 13 13 13 13 13 12 12 12 11 11 11 11 11 11 11 11 11 11 10 10 10 10 11 11 11 10 10 9 9 9 9 9 9 9 9 9 9
15 14 14 14 14 13 13 13 13 13 13 12 12 12 11 11 11 11 11 11 11 11 11 10 10 10 10 10 10 10 10 10 9 9 9 9 9 9 9 9 9 9 9
15 14 14 13 13 13 13 13 13 13 12 12 12 12 12 11 11 11 11 11 11 10 10 10 10 10 10 10 10 10 10 9 9 9 8 9 9 9 8 8 9 9 9
15 14 14 13 13 13 13 13 12 12 12 12 12 12 11 11 10 11 10 11 10 10 10 10 10 10 10 10 10 9 9 9 8 8 8 8 8 8 8 8 8 8 8
15 14 14 13 13 13 13 12 12 12 12 11 11 11 11 10 10 10 10 10 10 10 10 10 10 10 9 9 9 9 8 8 8 8 8 8 8 8 8 8 8 8 8
16 15 14 14 13 13 13 12 12 12 12 11 11 11 11 10 10 10 10 10 10 10 9 9 9 9 9 9 9 9 9 8 8 8 8 8 8 8 8 8 8 8 8
16 16 15 14 14 13 13 12 12 12 12 12 11 11 11 11 11 10 10 10 9 9 9 9 9 9 9 9 9 9 9 9 8 8 8 8 8 8 8 7 7 7 7
16 16 16 15 14 14 13 13 12 12 12 12 12 11 11 11 11 10 10 10 9 9 9 9 9 9 9 9 9 9 9 9 8 8 8 8 8 8 8 7 7 7 7
17 17 16 15 15 14 13 13 13 12 12 12 12 12 11 11 11 10 10 10 9 9 9 9 9 9 9 9 9 9 9 8 8 8 8 8 8 8 8 7 7 7 7
18 17 17 16 15 14 14 13 13 13 12 12 12 12 11 11 11 10 10 10 9 9 9 9 9 9 9 9 9 9 9 8 8 8 8 8 8 8 8 8 7 7 7
17 17 17 16 16 15 14 14 13 13 12 12 12 12 11 11 11 10 10 10 9 9 9 9 9 9 9 9 9 9 9 9 8 8 8 8 8 7 8 8 8 7 7
17 17 17 17 16 15 14 14 13 13 13 12 12 12 12 11 11 10 10 10 9 9 9 9 9 9 9 9 9 9 9 9 8 8 8 8 8 8 7 8 7 7 7
17 16 16 16 16 15 14 13 13 12 12 12 12 12 12 11 11 10 10 10 9 9 9 9 9 9 9 9 9 9 9 9 8 8 8 8 8 8 7 7 7 7 7
16 16 16 16 16 15 14 14 13 13 13 13 12 12 12 11 11 10 10 10 9 9 9 9 9 9 9 8 8 8 9 9 8 8 8 8 8 8 8 7 7 7 7
17 17 17 17 16 16 16 16 16 14 13 12 12 12 12 12 11 11 10 10 10 9 9 9 9 9 9 9 8 8 8 8 9 9 8 8 8 8 7 7 7 7 7
17 17 17 17 17 17 16 15 14 13 12 12 12 12 12 12 11 11 10 10 10 9 9 9 9 9 9 9 8 8 8 9 8 8 8 8 8 7 7 7 7 7 7
18 18 18 18 17 17 16 15 14 14 14 15 14 13 12 12 11 11 10 10 10 10 9 9 9 9 9 9 9 8 8 8 8 8 8 8 8 8 7 7 7 7 6
19 18 18 18 17 17 16 16 15 15 15 14 13 12 12 12 11 11 10 10 10 10 10 9 9 9 9 9 9 9 8 8 8 8 8 8 8 8 7 7 7 6 6
18 18 18 18 17 17 16 16 16 16 15 13 13 12 12 12 11 11 11 10 10 10 10 10 9 9 9 9 9 9 9 8 8 8 8 7 7 7 8 7 7 6 6

GEFSSE_850_meantemp_132.txt.gz
Temperature
19 19 18 18 17 16 16 16 15 15 15 15 15 15 14 14 14 14 14 14 14 14 14 14 14 14 14 14 14 14 14 14 14 14 14 14 13 13 13 13 13 14 13
21 20 18 17 17 16 16 15 15 15 15 15 14 14 14 14 14 14 14 14 13 13 13 13 13 13 13 14 14 14 14 14 13 12 13 13 12 12 12 13 12 12 13
20 19 18 17 16 16 15 15 15 15 14 14 14 14 14 13 13 13 13 13 13 13 13 13 13 13 13 14 14 14 14 13 12 11 11 12 12 11 11 12 12 12 12
19 19 17 17 16 16 15 15 15 14 14 14 14 13 13 13 13 13 13 13 12 12 12 12 12 13 13 14 14 14 13 12 11 11 11 11 11 10 11 11 11 11 11
18 18 17 16 16 15 15 15 14 14 14 14 13 13 13 13 12 12 12 12 12 12 12 12 12 12 13 14 14 13 12 11 11 11 11 11 11 10 10 10 10 11 11
17 17 16 16 15 15 15 14 14 14 14 13 13 13 12 12 12 12 12 12 12 12 12 12 12 12 13 13 13 13 12 11 11 10 10 10 10 10 10 10 10 10 10
16 16 16 15 15 15 14 14 14 14 13 13 13 12 12 12 12 12 12 12 12 12 11 11 12 12 12 13 13 12 12 11 10 10 10 10 10 10 10 10 10 10 10
16 16 15 15 14 14 14 14 14 13 13 13 12 12 12 12 12 12 12 12 11 11 11 11 11 12 12 12 12 12 11 10 10 10 10 10 10 9 10 10 10 10 10
15 15 15 14 14 14 14 14 13 13 13 12 12 12 12 12 12 12 12 11 11 11 11 11 11 11 12 12 11 11 10 10 10 9 10 10 9 9 9 9 9 9 9
15 15 15 14 14 14 13 13 13 13 12 12 12 12 12 12 11 12 12 11 11 11 11 11 11 11 11 11 11 11 10 10 9 9 9 9 9 9 9 9 9 9 9
15 14 14 14 14 14 13 13 13 13 12 12 12 12 12 11 11 11 11 11 11 11 11 11 11 11 11 11 10 10 10 10 10 10 9 9 9 9 9 9 9 9 9
15 14 14 14 14 13 13 13 13 12 12 12 12 12 11 11 11 11 11 11 11 11 11 11 11 10 10 10 10 10 10 10 9 9 9 9 9 9 9 8 8 8 8
15 14 14 14 14 13 13 13 13 12 12 12 12 12 11 11 10 11 11 11 11 11 11 10 10 10 10 10 10 10 10 9 9 9 9 9 9 9 8 8 8 8 8
15 15 14 14 14 13 13 13 13 12 12 12 12 11 11 11 11 11 11 11 11 10 10 10 10 9 9 10 9 9 9 9 9 9 9 9 9 9 8 8 8 8 8
15 15 14 14 14 13 13 13 13 12 12 12 11 11 11 11 11 11 11 11 10 10 10 10 10 9 9 9 9 9 9 9 9 9 9 9 9 9 8 8 8 8 8
16 15 15 14 14 14 13 13 13 12 12 12 12 11 11 11 11 11 11 10 10 10 10 10 9 9 9 9 9 9 9 9 9 9 9 9 9 9 9 9 8 8 8
16 16 15 14 14 14 14 13 13 12 12 12 12 11 11 11 11 11 11 10 10 10 10 10 9 9 9 9 9 9 9 9 9 9 9 9 9 9 9 9 9 8 8
17 16 15 15 14 14 14 13 13 12 12 12 12 11 11 11 11 11 11 10 10 10 10 10 10 9 9 9 9 9 9 9 9 9 9 9 9 9 9 9 9 9 8
17 16 15 15 15 14 14 13 13 12 12 12 12 12 11 11 11 11 11 10 10 10 10 10 10 9 9 9 9 9 9 9 9 9 9 9 9 9 9 9 9 9 8
18 17 16 15 15 14 14 13 13 12 12 12 12 12 12 12 11 11 11 11 10 10 10 10 10 9 9 9 9 9 9 9 9 9 9 9 9 9 9 9 9 9 9
18 17 16 15 15 14 14 13 13 13 13 12 12 12 12 12 11 11 11 11 10 10 10 10 10 10 9 9 9 9 9 9 9 9 9 9 9 9 9 9 9 9 9
18 17 16 16 15 15 15 15 14 14 13 13 12 12 12 12 11 11 11 11 11 11 10 10 10 10 9 9 9 9 9 9 9 9 9 9 9 9 9 9 8 8 8
18 18 17 16 16 15 15 14 13 12 12 12 12 12 12 12 12 11 11 11 11 11 11 10 10 10 10 9 9 9 9 9 9 9 9 9 9 9 9 9 8 8 8
19 18 17 16 16 15 15 14 13 13 13 14 14 13 13 12 12 11 11 11 11 11 10 10 10 10 10 10 9 9 9 9 9 9 9 9 9 9 9 8 8 8 8
19 18 18 17 16 15 15 14 14 14 15 14 14 13 13 12 12 11 11 11 11 11 10 10 10 10 10 10 10 9 9 9 9 9 9 9 9 9 8 8 8 8 8
19 18 18 17 16 15 14 14 14 15 14 14 13 13 13 12 12 11 11 11 11 10 10 10 10 10 10 10 9 9 9 9 9 9 9 9 9 9 8 8 8 8 8

GEFSSE_850_meantemp_138.txt.gz
Temperature
18 17 16 16 17 17 17 17 16 16 16 16 16 16 15 15 15 15 15 15 14 14 14 14 14 14 14 14 14 13 14 14 14 14 13 13 13 13 13 13 13 13 13
20 17 16 16 16 16 16 16 16 16 16 16 15 15 15 15 15 15 14 14 14 14 14 14 14 14 13 13 13 13 13 14 14 13 13 13 12 12 13 13 13 13 13
19 17 16 16 16 16 16 16 16 16 15 15 15 15 15 14 14 14 14 14 14 14 14 14 14 13 13 13 13 13 13 13 13 13 13 12 12 11 12 12 12 12 12
19 17 16 16 16 16 16 16 16 15 15 15 14 14 14 14 14 13 13 13 13 13 13 13 13 13 13 12 12 12 12 12 12 12 12 11 11 11 11 11 11 11 11
18 17 16 15 15 16 16 15 15 15 15 14 14 14 14 14 13 13 13 13 13 13 13 13 13 13 13 12 12 12 12 12 12 12 11 11 11 11 11 11 11 11 11
18 17 16 15 15 15 15 15 15 15 14 14 14 14 14 13 13 13 13 13 13 13 13 13 13 13 13 12 12 11 12 12 11 11 11 11 11 10 11 11 11 11 11
18 16 15 15 15 15 15 15 15 14 14 14 14 13 13 13 13 13 13 13 12 12 13 13 13 13 12 12 12 11 11 11 11 11 11 11 10 10 10 10 10 10 10
18 16 15 15 15 15 15 14 14 14 14 13 13 13 13 13 13 12 12 12 12 12 12 12 12 12 12 12 11 11 11 11 11 11 11 10 10 10 10 10 10 10 10
17 16 15 14 14 14 14 14 14 14 13 13 13 13 13 13 13 12 12 12 12 12 12 12 12 12 12 11 11 11 11 11 10 10 10 10 10 10 10 10 10 10 10
16 15 15 14 14 14 14 14 14 13 13 13 13 13 13 12 12 12 12 12 12 12 12 12 12 11 11 11 11 10 10 10 10 10 10 10 10 10 10 9 9 9 10
15 14 14 14 14 14 14 13 13 13 13 12 12 12 12 12 12 12 12 12 12 12 12 12 12 11 11 10 10 10 10 10 10 10 10 10 10 9 9 9 9 9 9
14 14 14 14 14 14 13 13 13 13 12 12 12 12 12 12 12 12 12 12 12 12 12 12 11 11 11 10 10 10 10 10 10 10 10 10 9 9 9 9 9 9 9
15 14 14 14 14 13 13 13 13 13 12 12 12 12 12 12 12 12 12 12 12 12 12 11 11 11 10 10 10 10 10 10 10 10 10 10 9 9 9 9 9 9 9
14 14 14 14 14 13 13 13 13 13 13 12 12 12 12 12 12 12 12 12 12 12 11 11 11 10 10 10 10 10 10 10 10 10 10 10 10 9 9 9 9 9 8
15 14 14 14 13 13 13 13 13 13 13 13 12 12 12 12 12 12 12 12 12 11 11 11 10 10 10 10 10 10 10 10 10 10 10 10 10 9 9 9 8 8 8
15 15 14 14 14 13 13 13 13 13 13 13 13 12 12 12 12 12 12 12 11 11 11 10 10 10 10 10 10 10 10 10 10 10 10 10 10 9 9 9 9 8 8
16 15 15 14 14 13 13 13 13 13 13 13 13 12 12 12 12 12 12 12 11 11 11 10 10 10 10 10 10 10 10 10 10 10 10 10 10 9 9 9 9 9 8
16 15 15 14 14 14 13 13 13 13 13 13 13 12 12 12 12 12 12 12 11 11 10 10 10 10 9 9 9 9 9 9 9 10 10 10 9 9 9 9 9 9 9
16 15 15 14 14 14 13 13 13 13 13 13 13 13 12 12 12 12 12 12 11 11 10 10 10 10 10 9 9 9 9 9 9 9 10 9 9 9 9 9 9 9 9
16 16 15 15 14 14 13 13 13 13 13 13 13 13 13 12 12 12 12 11 11 11 10 10 10 9 9 9 9 9 9 9 9 9 9 9 9 9 9 9 9 9 9
16 15 15 15 14 13 13 13 13 13 13 13 13 13 12 12 12 12 12 11 11 11 10 10 10 9 9 9 9 9 9 9 9 9 9 9 9 9 9 9 9 9 9
16 16 15 15 14 14 14 14 14 14 13 13 13 12 12 12 12 12 12 12 11 11 10 10 10 9 9 9 9 9 9 9 9 9 9 9 9 9 9 9 9 9 8
16 16 16 15 15 15 15 14 13 13 12 12 12 12 12 12 12 12 12 12 11 11 11 10 10 10 10 9 9 9 9 9 9 9 9 9 9 9 9 9 9 9 8
17 17 17 16 16 15 15 14 13 13 13 14 14 13 13 12 12 12 12 12 11 11 11 11 10 10 10 10 9 9 9 10 9 9 9 9 9 9 9 9 9 9 8
17 17 17 17 16 16 15 14 14 14 14 14 14 13 13 13 12 12 12 11 11 11 11 11 10 10 10 10 10 9 9 9 9 9 9 9 9 9 9 9 8 8 8
17 17 17 16 16 16 15 15 15 15 14 14 14 13 13 13 12 12 12 11 11 11 11 11 10 10 10 10 9 9 9 9 9 9 9 9 9 9 9 8 8 8 8

GEFSSE_850_meantemp_144.txt.gz
Temperature
21 20 19 18 17 17 17 16 16 16 16 16 16 16 16 16 16 16 16 15 15 15 15 15 15 14 14 14 14 14 14 14 14 14 14 14 14 14 14 14 13 13 13
22 20 19 18 17 17 16 16 16 16 16 16 16 16 16 16 16 15 15 15 15 15 14 14 14 14 13 14 14 14 14 14 14 14 14 13 13 13 13 13 13 13 13
21 20 18 17 17 16 16 16 16 16 16 16 16 16 16 15 15 15 15 14 14 14 14 14 13 13 13 13 14 14 14 14 14 14 13 13 13 12 12 12 12 12 12
20 19 18 17 16 16 16 16 16 16 16 16 15 15 15 15 15 14 14 14 14 14 13 13 13 13 13 13 13 14 14 14 13 13 13 13 12 12 12 12 12 12 12
20 18 17 16 16 16 15 15 15 15 15 15 15 15 15 14 14 14 14 14 13 13 13 13 13 13 13 13 13 13 13 13 13 12 12 12 11 11 11 11 11 11 11
19 18 17 16 16 15 15 15 15 15 15 15 15 14 14 14 14 13 13 13 13 13 13 13 12 12 12 12 13 13 13 13 12 12 12 11 11 11 11 11 11 11 11
19 17 16 16 16 15 15 15 15 15 15 15 14 14 14 14 13 13 13 13 13 13 13 12 12 12 12 12 12 12 12 12 12 11 11 11 11 11 11 11 11 11 11
18 17 16 16 15 15 15 15 15 15 14 14 14 14 13 13 13 13 13 13 13 12 12 12 12 12 12 11 12 12 12 11 11 11 11 11 11 10 10 10 10 10 10
16 16 15 15 15 15 15 15 15 14 14 14 14 14 13 13 13 13 13 12 12 12 12 12 11 11 11 11 11 11 11 11 11 11 11 10 10 10 10 10 10 10 10
15 15 15 15 15 15 15 15 14 14 14 14 13 13 13 13 12 12 12 12 12 12 12 11 11 11 11 11 11 11 11 11 11 10 10 10 10 10 10 10 10 10 10
14 15 15 15 15 14 14 14 14 14 14 13 13 13 13 12 12 12 12 12 12 12 11 11 11 11 11 11 11 11 11 10 10 10 10 10 10 9 9 9 9 9 9
14 15 14 15 14 14 14 14 14 13 13 13 13 12 12 12 12 12 12 11 11 11 11 11 11 11 11 11 11 10 10 10 10 10 10 10 9 9 9 9 9 9 9
15 14 14 14 14 14 14 14 13 13 13 13 12 12 12 12 12 11 11 11 11 11 11 11 11 11 11 10 10 10 10 10 10 10 10 9 9 9 9 9 9 8 9
14 14 14 14 14 14 14 13 13 13 13 13 12 12 12 12 12 11 11 11 11 11 11 11 11 11 10 10 10 10 10 10 10 10 9 9 9 9 9 9 8 8 8
13 14 14 14 14 14 14 13 13 13 13 12 12 12 12 12 12 12 11 11 11 11 11 11 11 10 10 10 10 10 10 10 10 10 9 9 9 9 9 8 8 8 8
13 13 13 13 14 13 13 13 13 13 13 12 12 12 12 12 12 12 11 11 11 11 11 11 10 10 10 10 10 9 9 10 10 9 9 9 9 9 9 8 8 8 8
13 13 13 13 13 13 13 13 13 13 12 12 12 12 12 12 12 12 11 11 11 11 10 10 10 10 10 9 9 9 9 9 9 9 9 9 9 9 9 9 9 8 8
13 13 13 13 13 13 13 13 13 13 12 12 12 12 12 12 12 11 11 11 11 10 10 10 10 10 9 9 9 9 9 9 9 9 9 9 9 9 9 9 9 8 8
13 13 13 13 13 13 13 12 13 12 12 12 12 12 12 12 11 11 11 11 11 10 10 10 10 10 9 9 9 9 9 9 9 9 9 9 9 9 9 9 9 9 8
13 13 13 13 13 13 12 12 12 12 12 12 12 12 12 12 11 11 11 11 11 10 10 10 10 9 9 9 9 9 9 9 9 9 9 9 9 9 9 9 9 9 9
13 13 13 13 13 13 12 12 12 12 12 12 12 12 12 12 11 11 11 11 11 10 10 10 9 9 9 9 9 8 9 9 9 9 9 9 9 9 9 9 9 9 9
13 13 13 13 13 13 13 12 12 12 12 12 12 12 12 12 11 11 11 11 11 10 10 10 10 9 9 9 9 8 8 9 9 9 9 9 9 9 9 9 9 9 9
13 13 13 13 13 13 13 12 12 12 11 11 11 12 12 12 12 12 11 11 11 11 10 10 10 9 9 9 9 9 9 9 9 9 9 9 9 9 9 9 9 9 8
13 13 13 13 13 13 12 12 12 12 12 12 12 12 12 12 12 12 11 11 11 11 11 10 10 10 9 9 9 9 9 9 9 9 9 10 9 9 9 9 9 9 8
13 14 14 13 13 13 13 13 12 12 13 12 12 12 12 12 12 12 11 11 11 11 11 10 10 10 10 9 9 9 9 9 9 9 9 10 9 9 9 9 9 9 8
13 13 14 13 13 13 13 13 13 13 13 13 13 13 13 13 12 12 12 11 11 11 11 11 10 10 10 9 9 9 9 9 9 9 9 9 9 9 9 9 9 9 8

GEFSSE_850_meantemp_150.txt.gz
Temperature
21 21 20 20 19 19 18 18 17 17 17 17 17 17 17 17 17 16 16 16 16 16 16 16 16 15 15 15 15 15 15 15 15 15 14 14 14 14 14 14 13 13 14
22 20 20 19 18 18 18 17 17 17 17 17 17 17 16 16 16 16 16 16 16 15 15 15 15 15 15 15 15 15 15 15 14 14 14 14 14 14 14 13 13 13 13
21 20 19 18 17 17 17 17 16 16 16 16 16 16 16 16 16 16 15 15 15 15 15 15 15 15 14 14 14 14 14 14 14 14 13 13 13 13 13 13 13 13 13
20 19 18 18 17 17 16 16 16 16 16 16 16 16 16 16 16 15 15 15 15 15 15 14 14 14 14 14 14 14 14 14 14 13 12 12 12 12 12 12 12 12 12
19 18 17 17 17 16 16 16 16 16 16 16 16 16 15 15 15 15 15 14 14 14 14 14 14 14 14 14 14 14 14 14 13 12 12 12 12 12 12 12 12 12 12
18 17 17 17 16 16 16 16 16 16 16 16 16 15 15 15 15 14 14 14 14 14 14 13 13 13 13 13 13 14 13 13 12 12 11 11 11 11 11 12 11 11 11
17 17 16 16 16 16 16 16 16 16 15 15 15 15 15 15 14 14 14 14 14 13 13 13 13 13 13 13 13 13 13 13 11 11 11 11 11 11 11 11 11 11 11
16 16 16 16 16 16 16 16 15 15 15 15 15 15 15 14 14 14 14 13 13 13 13 13 13 12 12 13 13 13 12 12 11 11 11 11 11 11 11 11 11 11 11
15 15 15 15 15 15 15 15 15 15 15 15 15 15 14 14 14 14 13 13 13 13 13 12 12 12 12 12 12 12 12 12 11 11 11 11 11 11 11 11 11 11 11
15 15 15 15 15 15 15 15 15 15 15 15 14 14 14 14 13 13 13 13 13 12 12 12 12 12 12 12 12 12 11 11 10 10 10 10 10 10 10 10 10 10 11
15 15 15 15 15 15 15 15 15 15 15 14 14 14 14 13 13 13 12 12 12 12 12 11 11 11 12 11 11 11 11 10 10 10 10 10 10 10 10 10 10 10 10
14 14 15 15 15 15 15 15 15 14 14 14 14 13 13 13 12 12 12 12 12 11 11 11 11 11 11 11 11 11 10 10 10 10 10 10 10 10 10 10 10 10 10
14 14 14 14 15 15 15 14 14 14 14 14 13 13 13 12 12 12 12 11 11 11 11 11 10 10 10 10 10 10 10 10 10 10 10 10 10 10 10 10 10 10 9
14 14 14 14 14 14 14 14 14 14 14 13 13 13 13 12 12 12 11 11 11 10 10 10 10 10 10 10 10 10 10 10 9 9 9 10 10 9 9 9 9 9 9
13 13 14 14 14 14 14 14 14 14 14 13 13 13 13 12 12 12 11 11 11 10 10 10 10 10 10 9 9 9 9 9 9 9 9 10 10 9 9 9 9 9 9
13 13 13 13 14 14 14 14 14 14 13 13 13 13 12 12 12 11 11 11 11 10 10 10 10 10 9 9 9 9 9 9 9 9 9 9 9 9 9 9 9 9 9
13 13 13 13 13 14 14 14 14 13 13 13 13 12 12 12 12 11 11 11 11 10 10 10 9 9 9 9 9 9 9 9 9 9 9 9 9 9 9 9 9 9 9
12 12 13 13 13 13 13 13 13 13 13 13 12 12 12 12 12 11 11 11 10 10 10 10 10 9 9 9 9 9 9 9 9 9 9 9 9 9 9 9 9 9 9
12 12 12 12 13 13 13 13 13 13 13 12 12 12 12 12 12 11 11 11 10 10 10 10 10 9 9 9 9 9 9 9 9 9 9 9 9 9 9 9 9 9 9
12 12 12 12 12 12 13 13 12 13 12 12 12 12 12 12 11 11 11 10 10 10 10 9 9 9 9 9 9 9 9 9 9 9 9 9 9 9 9 9 9 9 9
11 11 12 12 12 12 12 12 12 12 12 12 12 12 12 11 11 11 11 10 10 10 10 9 9 9 9 9 9 8 8 8 8 9 9 9 9 9 9 9 9 9 9
11 11 11 11 12 12 12 12 12 12 12 12 12 12 12 11 11 11 11 10 10 10 9 9 9 9 9 9 8 8 8 8 8 9 9 9 9 9 9 9 9 9 9
11 11 11 11 11 11 12 12 12 11 11 11 11 11 11 11 11 11 11 10 10 10 10 9 9 10 9 9 9 9 9 10 9 9 9 9 9 9 9 9 9 9 9
11 11 11 11 11 11 11 11 11 11 11 11 12 12 11 11 11 11 11 10 10 10 10 10 10 9 9 9 9 9 9 9 9 9 9 9 9 9 9 9 9 9 9
10 10 11 11 11 11 11 11 11 11 11 11 11 11 11 11 11 11 11 10 10 10 10 10 10 9 9 9 9 9 9 9 9 9 9 9 9 9 9 9 9 9 9
10 10 10 11 11 11 11 11 11 11 11 11 11 11 11 11 11 11 11 11 10 10 10 10 10 10 10 9 10 10 10 9 9 9 9 9 9 9 9 9 9 9 9

GEFSSE_850_meantemp_156.txt.gz
Temperature
22 22 22 21 20 20 19 19 19 19 19 18 18 18 18 18 18 17 17 17 17 17 16 16 16 16 16 16 16 16 15 15 15 15 14 14 14 14 14 14 14 14 14
22 22 21 20 19 19 18 18 18 18 18 18 18 18 17 17 17 17 17 17 16 16 16 16 15 15 15 15 15 15 15 15 14 14 14 14 14 14 13 13 13 13 13
21 21 20 19 19 18 18 18 17 18 17 17 17 17 17 17 17 16 16 16 16 16 16 15 15 15 15 15 15 15 15 14 14 13 13 14 14 13 13 13 13 13 13
20 20 19 19 18 17 17 17 17 17 17 17 17 17 17 16 16 16 16 16 16 15 15 15 15 15 15 15 15 15 14 14 13 13 13 13 13 13 13 12 12 12 12
19 19 19 18 17 17 17 17 17 17 17 17 17 16 16 16 16 16 16 15 15 15 15 15 15 15 15 15 15 14 14 13 13 13 12 13 13 12 12 12 12 12 12
19 18 18 17 17 17 17 17 16 16 16 16 16 16 16 16 16 15 15 15 15 15 15 15 15 15 15 15 14 14 13 13 12 12 12 12 12 12 12 12 12 12 12
18 18 17 17 17 17 16 16 16 16 16 16 16 16 16 15 15 15 15 15 14 14 14 14 14 14 14 14 14 13 13 12 12 12 12 12 12 12 12 12 12 12 12
18 17 17 17 16 16 16 16 16 16 16 16 16 16 15 15 15 15 14 14 14 14 14 14 14 14 14 14 14 13 12 12 12 12 12 12 12 11 12 12 11 11 11
17 17 17 16 16 16 16 16 16 16 16 16 16 15 15 15 15 14 14 14 14 14 14 14 14 14 14 13 13 13 12 12 11 11 11 12 11 11 11 11 11 11 11
17 16 16 16 16 16 16 16 16 16 16 16 15 15 15 14 14 14 14 14 13 13 13 13 13 13 13 13 13 12 12 11 11 11 11 11 11 11 11 11 11 11 11
16 16 16 16 16 16 16 16 16 16 15 15 15 15 14 14 14 14 13 13 13 13 13 13 13 13 13 12 12 12 11 11 11 11 11 11 11 11 11 11 11 11 11
15 15 15 15 15 15 15 15 15 15 15 15 15 14 14 14 13 13 13 13 13 13 12 12 12 12 12 12 12 11 11 11 11 11 11 11 11 10 10 11 11 11 10
14 14 15 15 15 15 15 15 15 15 15 15 14 14 14 13 13 13 13 12 12 12 12 12 12 12 12 12 11 11 11 11 11 11 11 11 11 10 10 11 10 10 10
14 14 14 14 15 15 15 15 15 14 14 14 14 14 14 13 13 13 13 12 12 12 11 11 11 11 11 11 11 11 11 10 10 11 11 11 10 10 10 10 10 10 10
13 13 14 14 14 14 14 14 14 14 14 14 14 14 14 13 13 13 12 12 12 11 11 11 11 10 11 11 10 10 10 10 10 10 11 10 10 10 10 10 10 10 10
13 13 13 13 14 14 14 14 14 14 14 14 14 14 13 13 13 13 12 12 11 11 11 11 10 10 10 10 10 10 10 10 10 10 10 10 10 10 10 10 9 9 9
13 13 13 13 13 13 14 14 14 13 14 14 14 13 13 13 13 13 12 12 11 11 11 10 10 10 10 10 10 10 10 10 10 10 10 10 10 10 10 10 9 9 9
12 12 12 13 13 13 13 13 13 13 13 13 13 13 13 13 13 13 12 12 11 11 11 10 10 10 10 10 10 10 10 10 10 10 10 10 10 10 10 10 10 9 9
11 12 12 12 12 13 13 13 13 13 13 13 13 13 13 13 13 13 12 12 11 11 10 10 10 10 10 10 9 9 10 10 10 10 9 9 9 10 10 10 10 9 9
11 11 12 12 12 12 12 12 12 12 13 13 13 13 13 13 12 12 12 12 11 11 10 10 10 10 10 10 9 9 9 9 9 9 9 9 9 9 10 10 10 10 9
10 11 11 11 12 12 12 12 12 12 12 12 13 13 12 12 12 12 12 12 11 11 10 10 10 10 10 9 9 9 9 9 9 9 9 9 9 9 9 9 10 10 9
10 10 11 11 11 11 11 12 12 12 12 12 12 12 12 12 12 12 12 12 11 11 10 10 10 10 9 9 9 9 8 9 9 9 9 9 9 9 9 9 9 9 9
9 10 10 10 11 11 11 11 11 11 11 11 12 12 12 12 12 12 12 12 11 11 10 10 10 10 10 9 10 10 9 9 9 9 9 9 9 9 9 9 9 9 9
9 9 10 10 10 10 11 11 11 11 11 11 11 12 11 11 11 11 12 11 11 11 11 10 10 10 10 10 9 10 10 10 10 9 9 9 9 9 9 10 9 9 9
8 9 9 9 10 10 10 10 11 11 11 11 11 11 11 11 11 11 11 11 11 11 10 10 10 10 10 10 10 10 10 10 11 10 9 9 9 9 9 9 9 9 9
8 8 9 9 9 10 10 10 10 11 11 11 11 11 11 11 11 11 11 11 11 11 10 10 10 10 10 10 10 10 10 10 10 10 10 10 9 9 9 9 9 9 9

GEFSSE_850_meantemp_162.txt.gz
Temperature
21 20 20 20 20 20 20 20 19 19 19 19 19 18 18 18 18 18 17 17 17 17 17 17 16 16 16 16 16 15 15 15 15 15 14 14 14 14 14 14 14 14 14
21 20 20 19 19 19 19 19 19 19 18 18 18 18 18 18 18 17 17 17 17 17 16 16 16 16 16 16 16 15 15 15 15 15 14 14 14 14 14 14 13 14 13
20 20 19 19 19 19 18 18 18 18 18 18 18 18 18 18 17 17 17 17 17 16 16 16 16 16 16 16 15 15 15 15 15 14 14 14 13 13 13 13 13 13 13
19 19 18 18 18 18 18 18 18 18 18 18 18 17 17 17 17 17 17 17 16 16 16 16 16 16 16 15 15 14 14 14 14 14 14 14 13 13 13 13 13 13 13
19 18 18 18 17 17 17 17 18 18 17 17 17 17 17 17 17 17 16 16 16 16 16 16 16 15 15 15 15 14 14 14 14 14 13 13 13 12 13 13 12 12 12
18 18 18 17 17 17 17 17 17 17 17 17 17 17 17 16 16 16 16 16 16 15 15 15 15 15 15 15 14 14 14 14 13 13 13 13 12 12 12 12 12 12 12
18 18 17 17 17 16 16 16 16 16 16 16 16 16 16 16 16 16 16 16 15 15 15 15 15 15 15 14 14 13 13 13 13 13 12 12 12 12 12 12 12 12 12
17 17 17 16 16 16 16 16 16 16 16 16 16 16 16 16 16 16 15 15 15 15 15 15 15 15 14 14 13 13 13 13 13 12 12 12 12 12 12 12 12 12 11
16 16 16 16 16 16 16 16 16 16 16 16 16 16 16 16 15 15 15 15 15 15 15 15 14 14 14 13 13 13 13 12 12 12 12 12 12 11 11 11 11 11 11
15 15 15 15 15 15 15 15 15 15 15 15 15 15 15 15 15 15 15 15 14 14 14 14 14 14 13 13 13 12 12 12 12 12 12 12 11 11 11 11 11 11 11
14 14 14 15 15 15 15 15 15 15 15 15 15 15 15 15 15 14 14 14 14 14 14 14 14 13 13 13 12 12 12 12 12 12 12 11 11 11 11 11 11 11 11
14 14 14 14 14 14 14 14 14 14 14 14 15 15 14 14 14 14 14 14 14 14 14 14 13 13 13 12 12 12 12 12 11 11 11 11 11 11 11 11 10 11 11
13 13 13 13 13 14 14 14 14 14 14 14 14 14 14 14 14 14 13 13 13 13 13 13 13 13 12 12 12 12 11 11 11 11 11 11 11 11 10 10 10 10 11
12 12 13 13 13 13 13 13 13 13 13 14 14 14 14 14 13 13 13 13 13 13 13 13 13 12 12 12 12 11 11 11 11 11 11 11 11 10 10 10 10 10 10
11 12 12 12 12 12 12 13 13 13 13 13 13 13 13 13 13 13 13 13 13 13 13 13 12 12 12 11 11 11 11 11 11 11 11 11 11 10 10 10 10 10 10
11 11 12 12 12 12 12 12 12 13 13 13 13 13 13 13 13 13 13 13 13 13 13 12 12 12 11 11 11 11 11 11 11 11 11 11 10 10 10 10 10 10 10
10 11 11 11 11 11 11 12 12 12 12 12 12 13 13 13 13 13 13 13 13 12 12 12 12 11 11 11 11 10 10 10 10 11 10 10 10 10 10 10 10 9 9
10 10 11 11 11 11 11 11 11 12 12 12 12 12 12 12 13 13 13 13 12 12 12 12 11 11 11 10 10 10 10 10 10 10 10 10 10 10 10 10 10 9 9
9 10 10 10 10 10 10 10 11 11 11 11 12 12 12 12 12 12 12 12 12 12 12 11 11 11 10 10 10 10 10 10 10 10 10 10 10 10 10 10 10 9 9
9 9 9 9 10 10 10 10 10 10 11 11 11 11 12 12 12 12 12 12 12 12 11 11 11 11 10 10 10 10 10 10 10 10 10 10 10 10 10 10 9 9 9
8 8 9 9 9 9 9 9 9 10 10 11 11 11 11 11 11 12 12 12 12 12 11 11 11 10 10 10 10 9 9 9 9 9 9 10 10 10 9 9 9 9 9
8 8 8 8 9 9 9 9 9 9 10 10 11 11 11 11 11 11 12 12 12 11 11 11 10 10 10 10 9 9 9 9 9 9 9 9 9 9 9 9 9 9 9
7 7 8 8 8 8 9 9 9 9 9 10 10 11 11 11 11 11 11 12 11 11 11 11 10 10 10 9 10 10 9 9 9 9 9 9 9 9 9 9 9 9 9
7 7 7 8 8 8 8 8 8 8 8 9 10 10 10 10 11 11 11 11 11 11 11 11 11 11 10 10 9 10 10 10 9 9 9 9 9 9 9 9 9 9 9
7 7 7 7 8 8 8 8 8 8 8 9 9 10 10 10 10 10 11 11 11 11 11 11 10 10 10 10 10 10 10 10 10 10 9 9 9 9 9 9 9 9 9
6 7 7 7 7 8 8 8 8 8 8 8 9 9 9 9 10 10 10 11 11 11 11 11 10 10 10 10 10 10 10 11 11 11 10 10 9 9 9 9 9 9 9

GEFSSE_850_meantemp_168.txt.gz
Temperature
18 18 18 18 18 18 17 17 17 17 18 18 18 18 18 18 18 18 17 17 17 17 17 17 17 17 16 16 16 16 16 15 15 15 15 15 14 14 14 14 14 14 14
17 18 18 18 18 17 17 17 17 17 17 17 17 18 18 18 17 17 17 17 17 17 17 17 16 16 16 16 16 16 15 15 15 15 15 14 14 14 14 14 14 14 14
17 17 17 17 17 17 17 17 17 17 17 17 17 17 17 17 17 17 17 17 17 17 17 16 16 16 16 16 16 15 15 15 15 15 14 14 14 14 13 13 13 13 13
17 17 17 17 17 17 17 17 17 17 17 17 17 17 17 17 17 17 17 16 17 17 16 16 16 16 16 15 15 15 15 15 15 14 14 14 13 13 13 13 13 13 13
16 16 16 16 16 16 16 16 16 16 17 17 17 17 17 16 16 17 16 16 16 16 16 16 16 16 15 15 15 15 15 15 14 14 14 13 13 13 13 13 13 13 12
16 16 16 16 16 16 16 16 16 16 16 16 16 16 16 16 16 16 16 16 16 16 16 16 16 15 15 15 15 15 15 14 14 14 13 13 13 13 13 12 12 12 12
15 15 15 15 15 16 16 16 16 16 16 16 16 16 16 16 16 16 16 16 16 16 16 16 15 15 15 15 15 14 14 14 14 13 13 13 13 12 12 12 12 12 12
14 14 15 15 15 15 15 15 15 16 16 16 16 16 16 16 16 16 16 16 16 16 15 15 15 15 15 14 14 14 14 14 13 13 13 12 12 12 12 12 12 12 11
13 14 14 14 15 15 15 15 15 15 15 15 15 16 16 15 15 15 15 15 15 15 15 15 15 14 14 14 14 14 14 13 13 13 12 12 12 12 12 12 11 11 11
13 13 13 14 14 14 14 15 15 15 15 15 15 15 15 15 15 15 15 15 15 15 15 15 14 14 14 14 14 14 13 13 13 12 12 12 12 11 11 11 11 11 11
13 13 13 13 13 14 14 14 14 14 14 14 14 14 14 15 15 15 15 15 15 15 15 14 14 14 14 13 13 13 13 13 12 12 12 12 11 11 11 11 11 11 11
12 12 12 12 13 13 13 13 14 14 14 14 14 14 14 14 14 14 14 14 14 14 14 14 14 14 13 13 13 13 13 12 12 12 12 11 11 11 11 10 10 10 10
11 11 12 12 12 12 13 13 13 13 13 14 14 14 14 14 14 14 14 14 14 14 14 14 13 13 13 13 13 13 12 12 12 12 11 11 11 11 11 10 10 10 10
10 11 11 11 12 12 12 12 12 12 13 13 13 13 13 13 13 13 13 13 14 14 14 14 13 13 13 13 13 13 12 12 12 12 11 11 11 11 10 10 10 10 10
9 10 10 11 11 11 12 12 12 12 12 12 12 13 13 13 13 13 13 13 13 13 13 13 13 13 13 12 12 12 12 12 12 12 11 11 11 11 10 10 10 10 10
9 9 10 10 10 11 11 11 11 12 12 12 12 12 12 12 12 12 12 13 13 13 13 13 13 13 12 12 12 12 12 12 11 11 11 11 11 11 10 10 10 10 10
8 9 9 9 10 10 10 11 11 11 11 11 11 12 12 12 12 12 12 12 12 12 12 12 12 12 12 12 12 12 12 11 11 11 11 11 11 10 10 10 10 10 10
8 8 8 9 9 9 10 10 10 10 10 11 11 11 11 11 11 11 11 12 12 12 12 12 12 11 11 11 11 11 11 11 11 11 11 11 10 10 10 10 10 10 9
7 7 8 8 8 9 9 9 10 10 10 10 10 10 10 11 11 11 11 11 11 11 11 11 11 11 11 11 11 11 11 11 11 10 10 10 10 10 10 10 10 10 9
7 7 7 7 8 8 8 9 9 9 9 9 10 9 10 10 10 10 10 11 11 11 11 11 11 11 11 11 10 10 10 10 10 10 10 10 10 10 10 10 9 9 9
7 7 7 7 7 7 7 8 8 8 8 9 9 9 9 9 10 10 10 10 10 10 11 11 11 10 10 10 10 9 9 9 9 10 10 10 10 9 9 9 9 9 9
6 6 6 6 6 6 7 7 7 8 8 8 8 9 9 9 9 9 10 10 10 10 10 10 10 10 10 10 10 9 9 9 9 9 9 9 9 9 9 9 9 9 9
6 6 6 6 6 6 6 7 7 7 7 7 8 8 8 8 9 9 9 10 9 10 10 10 10 10 9 9 10 10 9 9 9 9 9 9 9 9 9 9 9 9 9
6 6 6 6 6 6 6 6 6 6 6 7 7 8 8 8 8 9 9 9 9 9 10 10 10 10 10 9 9 10 10 10 9 9 9 9 9 9 9 9 9 9 9
5 5 6 6 6 6 6 6 6 6 6 7 7 7 7 7 8 8 9 9 9 9 9 9 10 10 9 9 9 9 10 10 10 9 9 9 9 9 9 9 9 9 9
5 5 5 5 5 6 6 6 6 6 6 6 7 7 7 7 7 8 8 8 9 9 9 9 9 9 9 9 9 9 10 10 10 10 10 9 9 9 9 9 9 9 9

GEFSSE_850_meantemp_174.txt.gz
Temperature
15 15 16 16 16 17 17 17 17 17 17 17 17 17 17 17 17 17 17 17 17 17 17 17 17 17 17 17 17 17 16 16 16 16 15 15 15 15 15 15 14 14 14
14 15 16 16 16 16 17 17 17 17 17 17 17 17 17 17 17 17 17 17 17 17 17 17 17 17 17 17 16 16 16 16 16 15 15 15 15 15 15 14 14 14 14
14 15 15 16 16 16 16 17 17 17 17 17 17 17 17 17 17 17 17 17 17 17 17 17 16 16 16 16 16 16 16 16 16 15 15 14 14 14 14 14 14 14 14
14 15 15 16 16 16 16 16 17 17 17 17 17 17 17 17 17 17 17 17 17 17 17 16 16 16 16 16 16 16 16 16 15 15 14 14 13 14 14 14 14 13 13
14 14 15 15 16 16 16 16 16 16 16 17 17 17 17 17 17 17 17 16 16 16 17 16 16 16 16 16 16 16 16 16 15 14 14 13 13 14 14 14 13 13 13
14 14 14 15 15 16 16 16 16 16 16 16 16 16 17 16 16 16 16 16 16 16 16 16 16 16 16 16 16 16 15 15 15 14 13 13 13 13 13 13 13 13 13
13 14 14 14 15 15 15 15 15 16 16 16 16 16 16 16 16 16 16 16 16 16 16 16 16 16 16 15 15 15 15 15 14 13 13 13 13 13 13 13 13 13 12
13 13 14 14 14 15 15 15 15 15 15 15 16 16 16 16 16 16 16 16 16 16 16 16 16 15 15 15 15 15 15 15 14 13 13 13 13 13 13 13 12 12 12
13 13 13 13 14 14 14 15 15 15 15 15 15 15 15 15 15 15 15 15 15 15 15 15 15 15 15 15 15 15 15 14 13 13 13 13 13 13 12 12 12 12 12
12 12 13 13 13 13 14 14 14 14 15 15 15 15 15 15 15 15 15 15 15 15 15 15 15 15 15 15 15 14 14 14 13 12 12 13 13 12 12 12 12 12 12
11 12 12 12 12 13 13 13 14 14 14 14 14 14 14 14 14 14 14 15 15 15 15 15 15 14 14 14 14 14 14 13 12 12 12 13 13 12 12 12 11 11 11
10 11 11 12 12 12 12 13 13 13 13 14 14 14 14 14 14 14 14 14 14 14 14 14 14 14 14 14 14 14 13 13 12 12 12 13 12 12 12 12 11 11 11
10 10 10 11 11 11 11 12 12 12 13 13 13 13 13 13 13 13 13 13 13 13 13 13 14 13 13 13 13 13 13 12 12 12 12 12 12 12 12 11 11 11 11
9 9 9 10 10 10 11 11 11 11 12 12 12 12 12 13 13 13 13 13 13 13 13 13 13 13 13 13 13 13 12 12 12 12 12 12 12 12 11 11 11 11 11
8 9 9 9 9 9 10 10 10 11 11 11 12 12 12 12 12 12 12 12 12 12 12 12 12 12 12 13 12 12 12 12 12 12 12 12 12 12 11 11 11 11 10
8 8 8 8 9 9 9 9 9 10 10 11 11 11 11 11 12 12 12 12 12 12 12 12 12 12 12 12 12 12 12 12 12 12 12 12 12 11 11 11 11 11 10
7 8 8 8 8 8 8 8 9 9 9 10 10 10 11 11 11 11 11 11 11 11 11 11 11 11 11 11 12 12 12 11 11 11 11 11 11 11 11 11 11 11 10
7 7 7 7 7 8 8 8 8 8 9 9 9 10 10 10 11 11 11 10 11 11 11 11 11 11 11 11 11 11 11 11 11 11 11 11 11 11 11 11 11 11 10
7 7 7 7 7 7 7 7 7 8 8 8 8 9 9 10 10 10 10 10 10 10 10 10 10 10 10 10 10 11 11 11 11 11 11 11 11 11 11 11 11 10 10
7 7 6 6 6 7 7 7 7 7 7 8 8 8 8 9 9 9 9 9 9 9 9 9 9 10 10 10 10 10 10 10 10 10 10 10 10 10 10 10 10 10 10
7 6 6 6 6 6 6 6 6 6 7 7 7 7 8 8 8 9 9 9 9 9 9 9 9 9 9 9 9 9 9 10 10 10 10 10 10 10 10 10 10 10 10
6 6 6 6 6 6 6 6 6 6 6 6 7 7 7 7 8 8 8 8 8 8 8 8 9 8 8 9 9 9 9 9 9 10 10 10 10 10 10 10 10 10 10
6 6 6 6 6 6 5 5 5 5 6 6 6 6 7 7 7 7 7 8 8 8 8 8 8 8 8 8 9 9 9 9 9 9 9 10 9 10 10 10 10 10 10
6 6 6 5 5 5 5 5 5 5 5 6 6 6 6 6 7 7 7 7 7 7 7 8 8 8 8 8 8 9 9 9 9 9 9 9 9 9 9 10 9 9 9
6 5 5 5 5 5 5 5 5 5 5 5 5 5 6 6 6 6 6 7 7 7 7 7 7 7 8 8 8 8 9 9 9 9 9 9 9 9 9 9 9 9 9
5 5 5 5 5 5 4 5 5 5 5 5 5 5 5 6 6 6 6 6 6 6 6 7 7 7 7 7 8 8 8 8 9 9 9 8 8 9 9 9 9 9 9

GEFSSE_850_meantemp_180.txt.gz
Temperature
15 16 16 16 17 16 17 17 17 17 17 17 17 17 17 17 17 17 17 17 17 17 17 17 17 17 17 17 17 17 16 16 16 16 16 16 15 15 15 15 15 14 14
15 15 16 16 16 17 17 17 17 17 17 17 17 17 17 17 17 17 17 17 17 17 17 17 17 17 17 17 17 17 16 16 16 16 16 15 15 15 15 14 14 14 14
15 15 16 16 16 16 17 17 17 17 17 17 17 17 17 17 17 17 17 17 17 17 17 17 17 17 17 16 16 16 16 16 16 15 15 15 15 15 15 14 14 14 14
15 15 15 16 16 16 16 17 17 17 17 17 17 17 17 17 17 17 17 17 17 17 17 17 17 16 16 16 16 16 16 16 15 15 15 15 14 14 14 14 14 14 13
14 15 15 15 16 16 16 16 16 16 16 17 17 17 17 17 17 17 17 17 17 17 16 16 16 16 16 16 16 16 16 15 15 15 15 14 14 14 14 14 14 14 13
14 14 14 15 15 16 16 16 16 16 16 16 16 16 16 16 16 16 16 16 16 16 16 16 16 16 16 16 16 16 15 15 15 15 14 14 14 14 14 14 14 13 13
14 14 14 14 15 15 15 15 15 16 16 16 16 16 16 16 16 16 16 16 16 16 16 16 16 16 16 16 16 16 15 15 15 14 14 14 14 14 14 13 13 13 13
13 13 13 13 14 14 14 15 15 15 15 15 16 16 16 16 16 16 16 16 16 16 16 16 16 16 16 16 15 15 15 15 14 14 14 14 14 13 13 13 13 13 13
13 13 13 13 13 13 14 14 14 14 15 15 15 15 15 15 15 15 15 15 16 16 16 16 16 16 15 15 15 15 14 14 14 14 14 13 13 13 13 13 13 13 12
12 12 12 12 12 13 13 13 13 14 14 14 14 15 15 15 15 15 15 15 15 15 15 15 15 15 15 15 15 15 14 14 14 14 14 13 13 13 13 13 13 12 12
12 12 12 12 12 12 12 12 13 13 13 14 14 14 14 14 14 14 15 15 15 15 15 15 15 15 15 15 15 14 14 14 13 13 13 13 13 13 13 13 12 12 12
11 11 11 11 11 11 12 12 12 12 12 13 13 13 13 14 14 14 14 14 14 14 14 14 14 14 14 14 14 14 14 13 13 13 13 13 13 13 13 13 12 12 12
11 10 10 10 10 10 11 11 11 11 11 12 12 12 12 13 13 13 13 13 13 13 13 14 14 14 14 14 14 13 13 13 13 13 13 13 13 13 13 13 12 12 12
10 10 10 10 10 10 10 10 10 10 11 11 11 11 11 12 12 12 12 13 13 13 13 13 13 13 13 13 13 13 13 13 13 13 13 13 13 13 13 12 12 12 12
10 10 9 9 9 9 9 9 9 9 9 10 10 11 11 11 11 11 11 12 12 12 12 12 12 12 12 12 12 12 12 13 13 12 12 12 13 13 12 12 12 12 12
9 9 9 9 9 9 9 9 9 9 9 9 9 10 10 10 10 10 10 11 11 11 11 12 11 12 12 12 12 12 12 12 12 12 12 12 12 12 12 12 12 12 12
9 9 9 8 8 8 8 8 8 8 8 9 9 9 9 9 10 10 10 10 10 11 11 11 11 11 11 11 11 11 11 12 12 12 12 12 12 12 12 12 12 12 12
9 8 8 8 8 8 7 8 8 8 8 8 8 8 9 9 9 9 9 9 10 10 10 10 10 10 10 10 11 11 11 11 11 11 11 12 12 12 12 12 12 12 12
8 8 8 8 7 7 7 7 7 7 7 8 8 8 8 8 8 8 8 9 9 9 9 9 9 10 10 10 10 10 10 11 11 11 11 11 11 11 11 11 12 12 11
8 8 7 7 7 7 7 7 7 7 7 7 7 8 8 8 8 8 8 8 8 8 9 9 9 9 9 10 10 10 10 10 10 10 11 11 11 11 11 11 11 11 11
8 7 7 7 7 7 6 6 6 6 7 7 7 7 7 7 7 7 7 8 8 8 8 8 8 9 9 9 9 9 9 10 10 10 10 10 10 10 11 11 11 11 11
8 7 7 7 7 6 6 6 6 6 6 6 6 6 7 7 7 7 7 7 7 7 7 8 8 8 8 8 8 8 8 9 9 9 10 10 10 10 10 11 11 11 11
7 7 7 7 7 6 6 6 6 6 6 6 6 6 6 6 6 6 7 7 7 7 7 7 7 7 8 8 8 8 8 8 8 9 9 10 10 10 10 10 10 10 11
7 7 7 7 6 6 6 6 5 5 5 5 5 5 5 6 6 6 6 6 6 6 7 7 7 7 7 7 8 8 8 8 8 8 9 9 9 9 9 10 10 10 10
7 7 7 6 6 6 6 5 5 5 5 5 5 5 5 5 5 6 6 6 6 6 6 6 6 7 7 7 7 7 8 8 8 8 7 8 9 9 9 9 10 10 10
7 7 6 6 6 6 5 5 5 5 5 5 5 5 5 5 5 5 5 5 6 6 6 6 6 6 6 6 7 7 7 7 7 8 7 7 8 8 9 9 9 9 10

GEFSSE_850_meantemp_186.txt.gz
Temperature
15 15 15 16 16 16 17 17 17 17 17 17 17 18 18 18 18 17 17 17 17 17 17 17 17 17 17 17 17 16 16 16 16 16 15 15 15 15 15 15 15 15 14
15 15 15 16 16 16 17 17 17 17 17 17 17 17 17 17 17 17 17 17 17 17 17 17 17 17 17 17 17 16 16 16 16 16 15 15 15 15 15 15 15 14 14
15 15 15 16 16 16 16 17 17 17 17 17 17 17 17 17 17 17 17 17 17 17 17 17 17 17 17 16 16 16 16 16 16 16 15 15 15 15 15 15 15 14 14
15 15 15 15 16 16 16 16 16 17 17 17 17 17 17 17 17 17 17 17 17 17 17 17 17 17 16 16 16 16 16 16 16 15 15 15 15 15 15 15 14 14 14
14 15 15 15 15 15 16 16 16 16 16 16 16 16 16 16 16 16 17 17 16 16 16 16 16 16 16 16 16 16 16 16 15 15 15 15 15 14 14 14 14 14 14
14 14 14 15 15 15 15 15 15 16 16 16 16 16 16 16 16 16 16 16 16 16 16 16 16 16 16 16 16 16 15 15 15 15 15 15 15 14 14 14 14 14 14
14 14 14 14 14 15 15 15 15 15 15 15 15 16 16 16 16 16 16 16 16 16 16 16 16 16 16 16 15 15 15 15 15 15 15 15 14 14 14 14 14 14 14
14 14 14 14 14 14 14 14 14 14 14 15 15 15 15 15 15 16 15 15 15 15 16 16 16 16 16 16 15 15 15 15 14 14 14 14 14 14 14 14 14 14 13
13 13 13 13 13 13 13 14 14 14 14 14 14 15 15 15 15 15 15 15 15 15 15 15 15 15 15 15 15 15 15 15 14 14 14 14 14 14 14 14 14 13 13
13 13 13 13 13 13 13 13 13 13 13 13 14 14 14 14 14 15 15 15 15 15 15 15 15 15 15 15 15 15 14 14 14 14 14 14 14 14 14 13 13 13 13
12 12 12 12 12 12 12 12 12 13 13 13 13 13 13 14 14 14 14 14 14 14 14 14 15 15 15 15 14 14 14 14 14 14 14 13 13 14 13 13 13 13 13
12 11 11 11 11 11 11 11 12 12 12 12 12 12 13 13 13 13 13 14 14 14 14 14 14 14 14 14 14 14 13 13 13 13 13 13 13 13 13 13 13 13 13
11 11 11 11 11 11 11 11 11 11 11 11 11 11 12 12 12 12 13 13 13 13 13 13 13 14 14 14 14 13 13 13 13 13 13 13 13 13 13 13 13 13 13
11 11 11 10 10 10 10 10 10 10 10 11 11 11 11 11 11 12 12 12 12 12 12 13 13 13 13 13 13 13 13 13 13 13 13 13 13 13 13 13 13 13 13
10 10 10 10 10 10 10 10 10 10 10 10 10 10 10 10 10 11 11 11 11 11 12 12 12 12 12 12 12 12 12 12 12 12 12 12 12 12 12 12 12 12 12
10 10 10 10 10 9 9 9 9 9 9 9 9 9 9 9 10 10 10 10 11 11 11 11 11 11 11 11 11 12 12 12 12 12 12 12 12 12 12 12 12 12 12
10 10 10 9 9 9 9 9 9 9 8 8 9 9 9 9 9 9 9 10 10 10 10 10 10 10 11 11 11 11 11 11 11 11 11 11 11 12 12 12 12 12 12
10 9 9 9 9 9 8 8 8 8 8 8 8 8 8 8 8 8 9 9 9 9 9 9 9 10 10 10 10 10 10 10 10 11 11 11 11 11 11 11 11 11 12
9 9 9 9 9 8 8 8 8 8 8 8 8 8 8 8 8 8 8 8 8 8 9 9 9 9 9 9 9 10 10 10 10 10 10 10 10 11 11 11 11 11 11
9 9 9 9 8 8 8 8 8 8 7 7 7 7 7 7 7 7 7 8 8 8 8 8 8 8 8 8 8 9 9 9 10 10 10 10 10 10 10 11 11 11 11
9 9 9 8 8 8 7 7 7 7 7 7 7 7 7 7 7 7 7 7 7 7 7 7 7 7 8 7 7 8 8 9 9 9 9 9 9 10 10 10 10 10 10
9 8 8 8 8 7 7 7 7 7 7 7 7 7 7 6 6 6 6 7 7 7 7 7 7 7 7 7 6 6 7 8 8 8 9 9 9 9 9 9 10 10 10
8 8 8 8 7 7 7 7 7 7 6 6 6 6 6 6 6 6 6 6 6 6 6 6 6 6 6 6 6 6 6 6 7 8 8 8 8 8 9 9 9 9 9
8 8 8 7 7 7 7 6 6 6 6 6 6 6 6 6 6 6 6 6 6 6 6 6 6 6 6 6 6 6 6 6 6 6 7 7 8 8 8 8 9 9 9
8 8 7 7 7 7 6 6 6 6 6 6 5 5 5 5 5 5 5 5 5 5 5 5 5 5 5 5 5 5 5 6 6 5 6 6 7 8 8 8 8 8 9
8 8 7 7 7 6 6 6 6 6 5 5 5 5 5 5 5 5 5 5 5 5 5 5 5 5 5 5 5 5 5 5 5 5 5 6 6 7 7 8 8 8 8

GEFSSE_850_meantemp_192.txt.gz
Temperature
15 15 15 15 16 16 16 16 16 17 17 17 17 17 17 17 17 17 17 17 17 17 17 17 17 17 17 16 16 16 16 16 16 16 15 15 15 15 15 15 15 15 14
15 15 15 15 16 16 16 16 16 17 17 17 17 17 17 17 17 17 17 17 17 17 17 17 17 17 17 16 16 16 16 16 16 16 16 15 15 15 15 15 15 14 14
14 14 15 15 15 16 16 16 16 16 16 17 17 17 17 17 17 17 17 17 17 17 16 16 16 16 16 16 16 16 16 16 16 15 15 15 15 15 15 14 14 14 14
14 14 14 15 15 15 16 16 16 16 16 16 16 16 16 16 16 16 16 16 16 16 16 16 16 16 16 16 16 16 16 16 16 15 15 15 15 15 14 14 14 14 14
14 14 14 14 15 15 15 15 15 16 16 16 16 16 16 16 16 16 16 16 16 16 16 16 16 16 16 16 16 16 16 16 15 15 15 15 15 15 14 14 14 14 14
14 14 14 14 14 14 15 15 15 15 15 15 15 16 16 16 16 16 16 16 16 16 16 16 16 16 16 16 16 16 16 16 15 15 15 15 15 15 14 14 14 14 14
14 14 14 14 14 14 14 14 14 14 15 15 15 15 15 15 15 15 15 15 15 16 16 16 15 15 15 15 15 15 15 15 15 15 15 15 15 14 14 14 14 14 14
13 13 13 14 14 14 14 14 14 14 14 14 14 14 15 15 15 15 15 15 15 15 15 15 15 15 15 15 15 15 15 15 15 15 15 14 14 14 14 14 14 14 14
13 13 13 13 13 13 13 13 13 13 13 14 14 14 14 14 14 14 14 14 14 15 15 15 15 15 15 15 15 15 15 14 14 14 14 14 14 14 14 14 14 14 14
13 13 13 13 13 13 13 13 13 13 13 13 13 13 13 14 14 14 14 14 14 14 14 14 15 15 15 15 14 14 14 14 14 14 14 14 14 14 14 14 13 13 13
12 12 12 12 12 12 12 12 12 12 12 12 13 13 13 13 13 13 13 13 13 14 14 14 14 14 14 14 14 14 14 14 14 14 14 14 14 13 14 13 13 13 13
12 12 12 12 12 12 12 12 12 12 12 12 12 12 12 12 12 13 13 13 13 13 13 13 13 13 14 14 14 14 14 13 13 13 13 13 13 13 13 13 13 13 13
12 11 11 11 11 11 11 11 11 11 11 11 11 11 12 12 12 12 12 12 12 12 13 13 13 13 13 13 13 13 13 13 13 13 13 13 13 13 13 13 13 13 13
11 11 11 11 11 11 11 11 11 11 11 11 11 11 11 11 11 11 12 12 12 12 12 12 12 12 12 12 13 13 13 12 12 12 12 12 13 12 12 13 12 12 12
11 11 11 11 11 10 10 10 10 10 10 10 10 10 10 10 10 11 11 11 11 11 11 11 11 11 12 12 12 12 12 12 12 12 12 12 12 12 12 12 12 12 12
11 11 10 10 10 10 10 10 10 9 9 9 9 9 10 10 10 10 10 10 10 10 10 10 11 11 11 11 11 11 11 11 11 11 11 11 11 12 12 12 12 11 12
11 10 10 10 10 10 10 9 9 9 9 9 9 9 9 9 9 9 9 9 9 10 10 10 10 10 10 10 10 10 10 11 11 11 11 11 11 11 11 11 11 11 11
10 10 10 10 9 9 9 9 9 9 9 9 9 9 9 8 8 9 9 9 9 9 9 9 9 9 10 10 10 10 10 10 10 10 10 10 10 10 10 10 10 11 11
10 10 9 9 9 9 9 9 8 8 8 8 8 8 8 8 8 8 8 8 8 8 8 8 8 8 9 9 9 9 9 9 10 10 10 10 10 10 10 10 10 10 10
10 9 9 9 9 9 9 8 8 8 8 8 8 8 8 8 7 7 7 7 8 8 8 8 8 8 8 8 8 8 9 9 9 9 9 9 9 9 9 10 10 10 10
9 9 9 9 9 8 8 8 8 8 8 8 8 7 7 7 7 7 7 7 7 7 7 7 7 7 7 7 7 7 8 8 8 9 9 9 9 9 9 9 9 9 9
9 9 9 8 8 8 8 8 8 8 8 8 7 7 7 7 7 7 6 6 6 6 7 7 6 6 6 6 6 5 6 7 7 8 8 8 8 9 9 9 9 9 9
9 9 9 8 8 8 8 8 8 7 7 7 7 7 7 7 6 6 6 6 6 6 6 6 6 6 6 6 5 5 5 5 6 7 7 7 8 8 8 8 8 8 8
9 9 8 8 8 8 7 7 7 7 7 7 7 7 6 6 6 6 6 6 5 5 5 5 5 5 5 5 5 5 5 5 4 5 6 6 7 7 7 7 8 8 8
9 8 8 8 8 7 7 7 7 7 6 6 6 6 6 6 6 6 5 5 5 5 5 5 5 5 5 5 4 4 4 4 4 4 4 5 6 6 7 7 7 7 7
8 8 8 8 8 7 7 7 7 6 6 6 6 6 6 5 5 5 5 5 5 5 5 5 5 4 4 4 4 4 4 4 4 4 4 4 5 6 6 6 6 7 7

GEFSSE_850_meantemp_198.txt.gz
Temperature
14 15 15 15 15 16 16 16 16 16 17 17 17 17 17 17 17 17 17 17 17 17 17 17 17 17 17 17 17 16 16 16 16 16 16 16 16 16 16 15 15 15 15
14 14 15 15 15 16 16 16 16 16 16 17 17 17 17 17 17 17 17 17 17 17 17 17 16 17 17 17 16 16 16 16 16 16 16 16 16 15 15 15 15 15 15
14 14 15 15 15 15 16 16 16 16 16 16 16 16 16 16 16 17 17 17 17 16 16 16 16 16 16 16 16 16 16 16 16 16 16 15 15 15 15 15 15 15 15
14 14 14 15 15 15 15 16 16 16 16 16 16 16 16 16 16 16 16 16 16 16 16 16 16 16 16 16 16 16 16 16 16 16 15 15 15 15 15 15 15 15 15
13 13 14 15 15 15 15 15 15 16 16 16 16 16 16 16 16 16 16 16 16 16 16 16 16 16 16 16 16 16 16 16 16 15 15 15 15 15 15 15 15 15 14
13 13 14 14 14 15 15 15 15 15 15 15 15 15 15 15 15 15 15 15 15 16 16 16 16 16 16 16 16 16 16 16 15 15 15 15 15 15 15 15 15 14 14
13 13 14 14 14 14 14 15 15 15 15 15 15 15 15 15 15 15 15 15 15 15 15 15 15 15 15 15 15 15 15 15 15 15 15 15 15 15 15 15 14 14 14
13 13 13 14 14 14 14 14 14 14 14 14 14 15 15 15 15 15 15 15 15 15 15 15 15 15 15 15 15 15 15 15 15 14 15 14 15 15 15 14 14 14 14
12 13 13 13 13 13 13 14 14 14 14 14 14 14 14 14 14 14 14 14 14 14 15 15 15 15 15 15 15 15 15 15 14 14 14 14 14 14 14 14 14 14 14
12 12 12 13 13 13 13 13 13 13 13 13 14 14 14 14 14 14 14 14 14 14 14 14 14 14 14 14 15 15 15 14 14 14 14 14 14 14 14 14 14 14 14
12 12 12 12 12 12 12 12 12 13 13 13 13 13 13 13 13 13 13 13 14 14 14 14 14 14 14 14 14 14 14 14 13 13 13 14 14 14 13 13 13 14 13
12 12 12 12 12 12 12 12 12 12 12 12 12 12 12 12 13 13 13 13 13 13 13 13 13 13 13 13 13 13 13 13 13 13 13 13 13 13 13 13 13 13 13
11 12 12 12 12 12 12 12 12 12 12 12 12 12 12 12 12 12 12 12 13 13 13 13 13 13 13 13 13 13 13 12 12 12 12 13 13 13 13 13 13 13 13
11 11 11 11 11 11 11 11 11 11 11 11 11 11 11 11 11 11 11 12 12 12 12 12 12 12 12 12 12 12 12 12 12 12 12 12 12 12 12 12 12 12 12
11 11 11 11 11 11 11 11 11 11 11 11 11 11 11 11 11 11 11 11 11 11 11 11 12 12 12 12 11 11 11 11 11 11 11 12 12 12 12 12 12 12 12
11 11 11 11 11 10 10 10 10 10 10 10 10 10 10 10 10 10 10 10 10 10 10 11 11 11 11 11 11 11 11 11 11 11 11 11 11 11 11 11 11 12 12
11 11 10 10 10 10 10 10 10 10 10 10 10 10 10 10 10 10 9 9 9 10 10 10 10 10 10 10 10 10 10 10 10 10 10 10 11 11 11 11 11 11 11
10 10 10 10 10 10 10 10 9 9 9 9 9 9 9 9 9 9 9 9 9 9 9 9 9 9 9 9 10 10 10 10 10 10 10 10 10 10 10 10 10 11 11
10 10 10 10 10 10 9 9 9 9 9 9 9 9 9 9 9 9 9 8 8 8 8 8 8 8 9 9 9 9 9 9 9 9 9 9 9 9 9 10 10 10 10
10 10 10 10 9 9 9 9 9 9 9 9 9 9 8 8 8 8 8 8 8 8 8 8 8 8 8 8 8 8 8 8 8 8 8 9 9 9 9 9 9 9 9
10 10 9 9 9 9 9 9 9 9 8 8 8 8 8 8 8 8 7 7 7 7 7 7 7 7 7 7 7 7 7 7 7 8 8 8 8 8 8 8 8 8 8
9 9 9 9 9 9 9 9 9 8 8 8 8 8 8 8 7 7 7 7 7 7 7 7 7 6 6 6 6 5 6 7 7 7 7 7 7 7 8 8 8 8 8
9 9 9 8 8 8 8 8 8 8 8 8 8 8 7 7 7 7 7 6 6 6 6 6 6 6 5 6 5 5 5 6 6 6 7 7 7 7 7 7 7 7 7
9 9 9 8 8 8 8 8 8 8 7 7 7 7 7 7 7 7 6 6 6 6 6 6 5 5 5 5 5 5 5 5 5 5 6 6 6 6 6 6 7 7 7
9 9 9 8 8 8 8 8 7 7 7 7 7 7 7 6 6 6 6 6 6 6 5 5 5 5 5 4 4 4 4 4 4 4 5 5 6 6 6 6 6 6 6
8 8 8 8 8 8 8 7 7 7 7 7 7 6 6 6 6 6 6 6 5 5 5 5 5 5 5 4 4 4 4 4 4 4 4 5 5 5 5 5 5 6 6

GEFSSE_850_meantemp_204.txt.gz
Temperature
16 16 16 16 16 16 16 16 16 17 17 17 17 17 17 17 17 17 17 17 17 17 17 17 17 17 17 17 17 17 16 16 16 16 16 16 16 16 16 16 16 16 15
15 16 16 16 16 16 16 16 16 16 16 16 16 16 16 16 16 16 16 17 17 17 17 17 17 17 16 16 16 16 16 16 16 16 16 16 16 16 16 16 16 16 15
15 16 16 16 16 16 16 16 16 16 16 16 16 16 16 16 16 16 16 16 16 16 16 16 16 16 16 16 16 16 16 16 16 16 16 16 16 16 16 16 15 15 15
15 15 15 16 16 16 16 16 16 16 16 16 16 16 16 16 16 16 16 16 16 16 16 16 16 16 16 16 16 16 16 16 16 16 16 16 15 15 16 15 15 15 15
14 15 15 15 15 16 16 16 16 16 16 16 16 16 16 16 16 16 16 16 16 16 16 16 16 16 16 16 16 16 16 16 15 15 15 15 15 15 15 15 15 15 15
14 15 15 15 15 15 15 15 15 15 15 15 16 16 16 16 16 16 16 15 15 15 16 16 16 16 16 16 16 16 16 15 15 15 15 15 15 15 15 15 15 15 15
14 14 15 15 15 15 15 15 15 15 15 15 15 15 15 15 15 15 15 15 15 15 15 15 16 16 16 16 16 16 15 15 15 15 15 15 15 15 15 15 15 15 15
14 14 14 14 15 15 15 15 15 15 15 15 15 15 15 15 15 15 15 15 15 15 15 15 15 15 15 15 15 15 15 15 15 15 15 15 15 15 15 15 15 15 14
14 14 14 14 14 14 14 14 14 14 14 14 14 14 14 14 14 15 15 15 15 15 15 15 15 15 15 15 15 15 15 15 15 14 14 14 14 14 14 14 14 14 14
13 13 13 13 13 14 14 14 14 14 14 14 14 14 14 14 14 14 14 14 14 14 15 15 15 15 15 15 15 15 15 15 14 14 14 14 14 14 14 14 14 14 14
13 12 13 13 13 13 13 13 13 13 13 14 14 14 13 13 13 13 14 14 14 14 14 14 14 14 14 14 14 14 14 14 14 14 14 14 14 14 13 13 13 14 13
12 12 12 12 13 13 13 13 13 13 13 13 13 13 13 13 13 13 13 13 13 13 14 14 14 14 14 14 14 14 14 14 13 13 13 13 13 13 13 13 13 13 13
12 12 12 12 12 12 12 12 12 12 12 12 12 12 12 13 13 13 12 13 13 13 13 13 13 13 13 13 13 13 13 13 13 13 13 13 13 13 13 13 13 13 13
12 12 12 12 12 12 12 12 12 12 12 12 12 12 12 12 12 12 12 12 12 12 12 12 12 12 12 12 12 12 12 12 12 12 12 12 12 12 12 12 12 12 12
12 12 12 12 12 12 12 12 12 12 12 12 12 12 11 11 11 11 11 11 11 11 11 11 11 12 12 12 12 12 12 12 12 12 12 12 12 12 12 12 12 12 12
12 12 12 12 12 12 12 11 11 11 11 11 11 11 11 11 11 11 11 11 11 11 11 11 11 11 11 11 11 11 11 12 12 12 12 12 12 11 11 11 11 11 11
12 12 12 11 11 11 11 11 11 11 11 11 11 11 11 10 10 10 10 10 10 10 10 10 10 10 10 11 11 11 11 11 11 11 11 11 11 11 11 11 11 10 10
12 11 11 11 11 11 11 11 11 10 10 10 10 10 10 10 10 10 10 10 10 10 10 10 10 10 10 10 10 10 10 11 11 11 11 10 10 10 10 10 10 10 10
12 11 11 11 11 11 10 10 10 10 10 10 10 10 10 10 10 10 9 9 9 9 9 9 9 9 9 10 10 10 10 10 10 10 10 10 10 9 9 9 9 9 9
11 11 11 11 10 10 10 10 10 10 9 10 10 10 9 9 9 9 9 9 9 9 9 9 9 9 9 9 9 9 9 10 10 9 9 9 9 9 9 9 9 9 9
11 11 10 10 10 10 10 9 9 9 9 9 9 9 9 9 9 9 9 9 8 8 8 8 8 8 8 8 8 8 9 9 9 8 8 8 8 8 8 8 8 8 8
11 10 10 10 10 10 9 9 9 9 9 9 9 9 8 8 8 8 8 8 8 8 8 8 8 7 7 7 7 6 6 7 8 8 8 8 7 7 8 8 8 8 8
10 10 10 10 10 9 9 9 8 8 8 8 8 8 8 8 8 8 8 8 8 8 7 7 7 7 7 7 6 6 5 6 6 7 7 7 7 7 7 7 7 7 7
10 10 10 9 9 9 9 8 8 8 8 8 8 8 8 8 7 7 7 7 7 7 7 7 7 6 6 6 6 6 5 5 5 5 6 6 6 6 6 7 7 7 7
10 10 9 9 9 9 8 8 8 8 8 8 7 7 7 7 7 7 7 7 7 7 6 6 6 6 6 5 5 5 5 5 5 4 4 5 6 6 6 6 6 6 6
10 9 9 8 8 8 8 8 8 8 7 7 7 7 7 7 7 7 6 6 6 6 6 6 6 6 5 5 5 5 5 4 4 4 4 4 5 5 5 5 5 5 5

GEFSSE_850_meantemp_210.txt.gz
Temperature
15 16 16 16 16 17 17 17 17 17 17 17 17 17 17 17 17 17 17 17 17 17 17 17 17 17 16 16 16 16 16 16 16 16 16 16 16 16 16 16 16 16 16
16 16 16 16 16 17 17 17 17 17 17 17 17 17 17 17 17 17 17 17 17 17 17 17 16 16 16 16 16 16 16 16 16 16 16 16 16 16 15 15 15 15 15
16 16 16 16 16 16 16 17 17 17 17 17 17 17 17 17 17 17 17 17 17 16 16 16 16 16 16 16 16 16 16 16 16 16 16 16 16 15 15 15 15 15 15
16 16 16 16 16 16 16 16 16 16 16 16 16 16 16 16 16 16 16 16 16 16 16 16 16 16 16 16 16 16 16 16 16 15 15 15 15 15 15 15 15 15 15
15 15 16 16 16 16 16 16 16 16 16 16 16 16 16 16 16 16 16 16 16 16 16 16 16 16 16 16 16 15 15 15 15 15 15 15 15 15 15 15 15 15 15
15 15 15 15 16 16 16 16 16 16 16 16 16 16 16 16 16 16 16 16 16 16 16 16 15 15 15 15 15 15 15 15 15 15 15 15 15 15 15 15 15 15 15
15 15 15 15 15 15 16 16 16 16 16 16 16 16 15 15 15 15 15 15 15 15 15 15 15 15 15 15 15 15 15 15 15 15 15 15 15 15 15 15 15 14 14
15 15 15 15 15 15 15 15 15 15 15 15 15 15 15 15 15 15 15 15 15 15 15 15 15 15 15 15 15 15 15 15 15 15 15 15 14 14 14 14 14 14 14
14 14 14 15 15 15 15 15 15 15 15 15 15 15 15 15 15 15 15 15 15 15 15 15 15 14 14 15 15 15 15 15 14 14 14 14 14 14 14 14 14 14 14
14 14 14 14 14 14 14 15 15 15 15 15 15 15 15 15 15 15 14 14 14 14 14 14 14 14 14 14 14 14 14 14 14 14 14 14 14 14 14 13 13 13 13
14 14 14 14 14 14 14 14 14 14 14 14 14 14 14 14 14 14 14 14 14 14 14 14 14 14 14 14 14 14 14 14 14 14 14 14 14 13 13 13 13 13 13
13 14 14 14 14 14 14 14 14 14 14 14 14 14 14 14 14 14 14 14 14 14 14 14 14 14 14 14 14 14 13 13 13 13 13 13 13 13 13 13 13 13 13
14 13 13 13 13 13 13 13 13 13 13 13 13 13 13 13 13 13 13 13 13 13 13 13 13 13 13 13 13 13 13 13 13 13 13 13 13 13 13 12 12 12 12
13 13 13 13 13 13 13 13 13 13 13 13 13 13 13 13 13 13 13 13 13 13 13 13 13 13 13 13 13 13 13 13 13 13 13 13 13 12 12 12 12 12 12
13 13 13 13 13 13 13 13 13 12 12 12 12 12 12 12 13 12 12 12 12 12 12 12 12 12 12 12 12 12 12 12 12 12 12 12 12 12 12 12 11 11 11
13 13 13 12 12 12 12 12 12 12 12 12 12 12 12 12 12 12 12 12 12 12 12 12 12 12 12 12 12 12 12 12 12 12 12 12 12 12 11 11 11 11 11
13 13 12 12 12 12 12 12 12 12 12 12 12 11 11 11 11 11 11 11 11 11 11 11 11 11 11 11 11 11 12 12 12 12 12 11 11 11 11 11 11 11 10
13 12 12 12 12 12 11 11 11 11 11 11 11 11 11 11 11 11 11 11 11 11 11 11 11 11 11 11 11 11 11 11 11 11 11 11 11 11 11 11 10 10 10
12 12 12 12 12 11 11 11 11 11 11 11 11 11 11 11 10 10 10 10 10 10 10 10 10 10 10 10 10 10 10 11 10 10 10 10 10 10 10 10 10 9 9
12 12 12 11 11 11 11 10 10 10 10 10 10 10 10 10 10 10 10 10 10 10 10 10 10 9 9 9 9 10 10 10 10 10 10 10 9 9 9 9 9 9 9
12 12 11 11 11 11 11 10 10 10 10 10 10 10 10 10 9 9 9 9 9 9 9 9 9 9 9 9 9 9 9 9 9 9 9 9 9 9 8 8 8 8 8
12 11 11 11 11 11 10 10 10 10 10 10 9 9 9 9 9 9 9 9 9 9 8 8 8 8 8 8 7 7 7 8 8 8 8 8 8 8 8 8 8 8 7
11 11 11 11 11 10 10 10 9 9 9 9 9 9 9 8 8 8 8 8 8 8 8 8 8 8 7 7 7 6 6 6 6 7 8 8 7 7 7 7 7 7 7
12 11 11 11 10 10 10 9 9 9 9 9 9 8 8 8 8 8 8 8 8 7 7 7 7 7 7 6 6 6 6 5 5 5 6 6 7 7 7 7 7 7 6
11 11 11 10 10 10 9 9 9 9 9 9 8 8 8 8 8 8 7 7 7 7 7 7 7 7 6 6 6 6 5 5 5 4 4 5 6 6 6 6 6 6 6
11 10 10 10 10 9 9 9 9 8 8 8 8 8 7 7 7 7 7 7 7 7 7 6 6 6 6 6 5 5 5 4 4 4 3 4 4 5 5 6 6 5 5

GEFSSE_850_meantemp_216.txt.gz
Temperature
17 17 16 16 16 16 16 17 17 17 17 17 17 17 17 17 17 17 17 17 17 17 17 17 16 16 16 16 16 16 16 16 16 16 16 16 16 16 16 15 15 15 15
17 17 16 16 16 16 16 16 16 17 17 17 17 17 17 17 17 17 17 17 17 16 16 16 16 16 16 16 16 16 16 16 16 16 16 16 16 15 15 15 15 15 15
17 16 16 16 16 16 16 16 16 16 16 17 17 17 17 16 16 16 16 16 16 16 16 16 16 16 16 16 16 16 16 16 16 16 15 16 15 15 15 15 15 15 15
16 16 16 16 16 16 16 16 16 16 16 16 16 16 16 16 16 16 16 16 16 16 16 16 16 16 16 16 16 16 16 16 16 15 15 15 15 15 15 15 15 15 15
16 16 16 15 16 16 16 16 16 16 16 16 16 16 16 16 16 16 16 16 16 16 16 16 15 15 15 15 15 15 15 15 15 15 15 15 15 15 15 15 15 15 15
15 15 15 15 15 15 15 16 16 16 16 16 16 16 16 15 15 15 15 15 15 15 15 15 15 15 15 15 15 15 15 15 15 15 15 15 15 15 15 15 15 14 14
15 15 15 15 15 15 15 15 16 15 15 15 15 15 15 15 15 15 15 15 15 15 15 15 15 15 15 15 15 15 15 15 15 15 15 15 14 14 14 14 14 14 14
15 15 15 15 15 15 15 15 15 15 15 15 15 15 15 15 15 15 15 15 15 15 15 15 15 15 15 15 15 15 15 15 15 15 15 14 14 14 14 14 14 14 14
14 15 14 14 14 15 15 15 15 15 15 15 15 15 15 15 15 15 15 15 15 15 15 15 15 14 14 14 14 14 14 14 14 14 14 14 14 14 14 14 14 14 14
14 14 14 14 14 14 14 15 15 15 15 15 15 15 15 15 15 15 15 15 15 14 15 14 14 14 14 14 14 14 14 14 14 14 14 14 14 14 14 14 13 13 13
14 14 14 14 14 14 14 14 14 14 14 14 14 14 14 14 14 14 14 14 14 14 14 14 14 14 14 14 14 14 14 14 14 14 14 14 14 13 13 13 13 13 13
14 14 14 14 14 14 14 14 14 14 14 14 14 14 14 14 14 14 14 14 14 14 14 14 14 14 13 13 13 13 13 13 13 13 13 13 13 13 13 13 13 13 13
13 13 13 13 13 13 13 13 13 14 14 13 13 13 14 14 14 14 14 14 14 14 13 13 13 13 13 13 13 13 13 13 13 13 13 13 13 13 13 12 12 12 12
13 13 13 13 13 13 13 13 13 13 13 13 13 13 13 13 13 13 13 13 13 13 13 13 13 13 13 13 13 12 13 13 12 13 12 12 12 12 12 12 12 12 12
13 13 13 13 13 13 13 13 13 13 13 13 13 13 13 13 13 13 13 13 13 13 13 12 12 12 12 12 12 12 12 12 12 12 12 12 12 12 12 11 11 11 11
13 13 13 12 12 12 12 12 12 12 12 12 12 12 12 12 12 12 12 12 12 12 12 12 12 12 12 12 12 12 12 12 11 11 11 11 11 11 11 11 11 11 11
13 13 12 12 12 12 12 12 12 12 12 12 12 12 12 12 12 12 12 12 12 11 11 11 11 11 11 11 11 11 11 11 11 11 11 11 11 11 11 11 10 10 10
13 12 12 12 12 12 12 12 11 11 11 11 11 11 11 11 11 11 11 11 11 11 11 11 11 11 11 11 11 11 11 11 11 11 10 10 10 10 10 10 10 10 10
13 12 12 12 12 11 11 11 11 11 11 11 11 11 11 11 11 10 10 10 10 10 10 10 10 10 10 10 10 10 10 10 10 10 10 10 10 10 10 10 10 10 10
12 12 12 12 11 11 11 11 11 10 10 10 10 10 10 10 10 10 10 10 10 10 10 10 10 10 10 10 10 10 10 10 10 10 9 9 9 9 9 9 9 9 9
12 12 11 11 11 11 10 10 10 10 10 10 10 10 10 10 10 10 10 9 9 9 9 9 9 9 9 9 9 9 9 9 9 9 9 9 9 9 8 8 8 8 8
12 12 11 11 11 11 10 10 10 10 10 10 9 9 9 9 9 9 9 9 9 9 9 8 8 8 8 8 8 8 8 8 8 8 8 8 8 8 8 8 8 8 8
11 11 11 11 11 10 10 10 10 9 9 9 9 9 9 9 9 9 9 8 8 8 8 8 8 8 8 7 7 6 6 6 6 7 7 7 7 7 7 7 7 7 7
11 11 11 11 11 10 10 10 10 10 9 9 9 9 9 8 8 8 8 8 8 8 8 7 7 7 7 7 7 6 6 5 5 5 6 7 7 7 7 7 7 7 7
11 11 11 10 10 10 10 10 9 9 9 9 9 8 8 8 8 8 8 8 7 7 7 7 7 7 7 6 6 6 6 5 5 4 4 6 6 6 6 6 6 6 6
10 10 10 10 10 10 10 9 9 9 9 9 8 8 8 8 7 7 7 7 7 7 7 7 6 6 6 6 6 5 5 5 4 4 4 4 5 6 6 6 6 6 5

GEFSSE_850_meantemp_222.txt.gz
Temperature
17 17 17 17 17 17 17 17 17 17 17 17 17 17 17 17 17 17 17 17 17 17 17 17 16 16 16 16 16 16 16 16 16 16 16 16 16 16 16 16 16 15 16
17 17 17 17 17 17 17 17 17 17 17 17 17 17 17 17 17 16 16 16 16 16 16 16 16 16 16 16 16 16 16 16 16 16 16 16 16 16 16 16 16 15 15
16 16 17 17 16 16 16 16 16 16 16 16 17 17 17 17 16 16 16 16 16 16 16 16 16 16 16 16 16 16 16 16 16 16 16 15 15 15 15 15 15 15 15
16 16 16 16 16 16 16 16 16 16 16 16 16 16 16 16 16 16 16 16 16 16 16 16 16 16 16 16 16 16 15 16 16 16 15 15 15 15 15 15 15 15 15
16 16 16 16 16 16 16 16 16 16 16 16 16 16 16 16 16 16 16 16 16 15 15 15 15 16 15 15 15 15 15 15 15 15 15 15 15 15 15 15 15 15 15
15 15 15 15 16 16 16 16 16 16 16 16 16 16 16 16 16 15 15 15 15 15 15 15 15 15 15 15 15 15 15 15 15 15 15 14 14 15 15 15 15 15 14
15 15 15 15 15 15 15 15 15 16 16 16 16 16 16 16 15 15 15 15 15 15 15 15 15 15 15 15 15 15 15 15 15 14 14 14 14 14 14 14 14 14 14
14 15 15 15 15 15 15 15 15 15 15 15 15 15 15 15 15 15 15 15 15 15 15 15 15 15 15 15 15 15 15 15 14 14 14 14 14 14 14 14 14 14 14
14 14 14 14 15 15 15 15 15 15 15 15 15 15 15 15 15 15 15 15 15 15 15 15 15 15 15 15 15 14 14 14 14 14 14 14 14 14 14 14 14 14 14
14 14 14 14 14 14 15 15 15 15 15 15 15 15 15 15 15 15 15 15 15 15 15 15 14 15 14 14 14 14 14 14 14 14 13 13 14 14 13 13 13 13 13
14 14 14 14 14 14 14 14 15 15 15 15 15 15 15 15 15 15 15 15 14 14 14 14 14 14 14 14 14 14 14 13 13 13 13 13 13 13 13 13 13 13 13
13 13 13 13 14 14 14 14 14 14 14 14 14 14 14 14 14 14 14 14 14 14 14 14 14 14 14 14 13 13 13 13 13 13 13 13 13 13 13 13 13 12 12
13 13 13 13 13 14 14 14 14 14 14 14 14 14 14 14 14 14 14 14 14 14 14 13 13 13 13 13 13 13 13 13 13 13 13 13 13 13 12 12 12 12 12
13 13 13 13 13 13 13 14 14 14 14 13 13 13 13 13 13 13 13 13 13 13 13 13 13 13 13 13 13 12 12 12 12 12 12 12 12 12 12 12 12 12 12
13 13 13 13 13 13 13 13 13 13 13 13 13 13 13 13 13 13 13 13 13 13 13 13 12 12 12 12 12 12 12 12 12 12 12 12 12 12 11 11 11 11 11
13 13 13 13 13 13 13 13 13 13 13 13 13 13 13 12 12 12 12 12 12 12 12 12 12 12 12 12 12 12 12 11 11 11 11 11 11 11 11 11 11 11 11
13 12 12 12 12 12 12 12 12 12 12 12 12 12 12 12 12 12 12 12 12 12 12 12 11 11 11 11 11 11 11 11 11 11 11 11 11 11 11 11 11 10 10
12 12 12 12 12 12 12 12 12 12 12 12 12 12 11 11 11 11 11 11 11 11 11 11 11 11 11 10 10 10 10 10 10 10 10 10 10 10 10 10 10 10 10
12 12 12 12 12 12 12 11 11 11 11 11 11 11 11 11 11 11 11 11 11 11 11 11 10 10 10 10 10 10 10 10 10 10 9 9 9 9 9 9 9 9 9
12 12 11 11 11 11 11 11 11 11 11 11 11 11 11 11 11 10 10 10 10 10 10 10 10 10 10 9 9 9 10 10 9 9 9 9 9 9 9 9 9 9 9
11 11 11 11 11 11 11 11 11 10 10 10 10 10 10 10 10 10 10 10 10 10 10 9 9 9 9 9 9 8 9 9 9 8 8 8 8 8 8 8 8 8 8
11 11 11 11 11 11 11 11 10 10 10 10 10 10 10 10 10 10 9 9 9 9 9 9 9 9 8 8 8 7 7 8 8 8 8 8 7 7 8 8 7 7 7
10 11 10 10 11 10 10 10 10 10 10 10 9 10 9 9 9 9 9 9 9 9 9 9 8 8 8 8 7 7 7 7 7 7 7 7 7 7 7 7 7 7 7
10 10 10 10 10 10 10 10 10 10 10 10 9 9 9 9 9 9 9 9 9 8 8 8 8 8 8 7 7 7 6 6 5 6 6 7 7 6 6 7 7 7 6
10 10 10 10 10 10 9 9 9 9 9 9 9 9 9 8 8 8 8 8 8 8 8 8 8 7 7 7 7 6 6 6 5 5 5 6 6 6 6 6 6 6 6
9 9 10 9 9 9 9 9 9 9 9 9 9 9 8 8 8 8 8 8 8 8 8 7 7 7 7 6 6 6 6 5 5 5 4 5 5 5 6 6 6 5 5

GEFSSE_850_meantemp_228.txt.gz
Temperature
18 19 18 18 18 17 17 17 17 17 17 17 17 17 17 17 17 17 17 17 17 16 16 16 16 16 16 16 16 16 16 16 16 16 16 16 16 16 16 16 16 16 16
18 18 18 18 18 17 17 17 17 17 17 17 17 17 17 17 17 17 17 16 16 16 16 16 16 16 16 16 16 16 16 16 16 16 16 16 16 16 16 16 16 15 15
18 18 18 18 17 17 17 17 17 17 17 17 17 17 16 16 16 16 16 16 16 16 16 16 16 16 16 16 16 16 16 16 16 15 15 15 15 15 15 15 15 15 15
17 17 17 17 17 17 17 17 17 17 17 17 17 17 16 16 16 16 16 16 16 16 16 16 16 16 16 16 16 16 16 15 15 15 15 15 15 15 15 15 15 15 15
16 17 17 17 17 17 16 16 16 16 16 16 16 16 16 16 16 16 16 16 16 15 16 16 16 16 16 16 15 15 15 15 15 15 14 14 14 15 15 15 15 15 15
16 16 16 16 16 16 16 16 16 16 16 16 16 16 16 16 16 16 16 16 16 15 15 15 15 15 15 15 15 15 15 15 14 14 14 14 14 14 14 14 14 14 14
16 16 16 16 16 16 16 16 16 16 16 16 16 16 16 16 16 16 15 15 15 15 15 15 15 15 15 15 15 15 15 14 14 14 14 14 14 14 14 14 14 14 14
16 16 16 15 16 16 16 16 16 16 16 16 16 16 16 16 15 15 15 15 15 15 15 15 15 15 15 15 15 15 14 14 14 14 14 14 14 14 14 14 14 14 14
15 15 15 15 15 15 15 15 15 16 16 15 15 15 15 15 15 15 15 15 15 15 15 15 15 15 15 15 14 14 14 14 14 14 14 14 14 14 14 14 14 14 14
15 15 15 15 15 15 15 15 15 15 15 15 15 15 15 15 15 15 15 15 15 15 15 15 15 15 15 14 14 14 14 14 13 13 13 13 13 13 13 13 14 13 13
14 14 14 14 14 15 15 15 15 15 15 15 15 15 15 15 15 15 15 15 15 15 15 15 14 14 14 14 14 14 13 13 13 13 13 13 13 13 13 13 13 13 13
14 14 14 14 14 14 14 14 14 14 14 14 14 14 15 14 14 15 15 14 14 14 14 14 14 14 14 14 14 13 13 13 13 13 13 13 13 13 13 13 13 13 13
14 14 13 14 14 14 14 14 14 14 14 14 14 14 14 14 14 14 14 14 14 14 14 14 13 13 13 13 13 13 13 12 12 12 12 12 12 12 12 12 12 12 12
13 13 13 13 14 14 14 14 14 14 14 14 14 14 14 14 14 14 14 14 14 14 13 13 13 13 13 13 13 13 12 12 12 12 12 12 12 12 12 12 12 12 11
13 13 13 13 13 14 14 14 13 14 14 14 14 13 13 13 13 13 13 13 13 13 13 13 13 13 12 12 12 12 12 12 12 12 12 12 12 11 11 11 11 11 11
13 13 13 13 13 14 14 13 13 13 13 13 13 13 13 13 13 13 13 13 13 13 13 12 12 12 12 12 12 12 12 11 11 11 11 11 11 11 11 11 11 11 11
13 13 13 13 13 13 13 13 13 13 13 13 13 13 13 13 13 12 12 12 12 12 12 12 12 12 12 11 11 11 11 11 11 11 11 10 11 11 11 10 10 10 10
13 13 13 13 13 13 13 13 13 13 13 13 12 12 12 12 12 12 12 12 12 12 12 11 11 11 11 11 11 11 11 11 10 10 10 10 10 10 10 10 10 10 10
12 12 12 12 13 13 13 12 12 12 12 12 12 12 12 12 12 12 12 11 11 11 11 11 11 11 11 11 11 10 10 10 10 10 10 10 10 9 9 9 9 9 9
12 12 12 12 12 12 12 12 12 12 11 12 12 12 11 11 11 11 11 11 11 11 11 10 10 10 10 10 10 10 10 10 10 9 9 9 9 9 9 9 9 9 8
12 12 12 12 12 12 12 12 12 11 11 11 11 11 11 11 11 11 11 11 10 10 10 10 10 10 10 9 10 10 9 9 9 9 9 9 8 8 8 8 8 8 8
11 11 11 11 11 11 12 12 11 11 11 11 11 11 11 11 11 11 11 10 10 10 10 10 10 9 9 9 8 8 8 8 9 9 8 8 8 8 8 8 8 8 8
10 11 11 11 11 11 11 11 11 11 11 10 10 10 10 10 10 10 10 10 10 10 9 9 9 9 9 8 8 8 7 7 7 8 8 8 7 7 7 7 7 7 7
10 10 10 10 10 10 10 11 11 11 11 10 10 10 10 10 10 10 10 10 10 9 9 9 9 9 8 8 8 7 7 6 6 6 7 7 7 7 7 7 7 7 7
9 9 9 10 10 10 10 10 10 10 10 10 10 10 10 9 10 9 9 9 9 9 9 9 9 8 8 8 7 7 7 6 6 6 6 6 7 7 6 6 6 6 6
9 9 9 9 9 9 9 9 10 10 10 10 9 9 9 9 9 9 9 9 9 9 9 8 8 8 8 7 7 7 6 6 6 5 5 5 6 6 6 6 6 5 5

GEFSSE_850_meantemp_234.txt.gz
Temperature
18 18 18 18 18 18 18 18 17 17 17 17 17 17 17 17 17 17 17 17 17 16 16 16 16 16 16 16 16 16 16 16 16 16 16 16 15 15 15 15 15 15 15
18 18 18 18 18 18 18 17 17 17 17 17 17 17 17 17 17 17 17 16 16 16 16 16 16 16 16 16 16 16 16 16 16 16 16 15 15 15 15 15 15 15 15
18 17 17 18 18 17 17 17 17 17 17 17 17 17 17 17 17 17 16 16 16 16 16 16 16 16 16 16 16 16 15 15 15 15 15 15 15 15 15 15 15 15 15
18 17 17 17 17 17 17 17 17 17 17 17 17 17 17 17 16 16 16 16 16 16 16 16 16 16 16 16 15 15 15 15 15 15 15 15 15 14 14 14 14 14 14
17 17 17 17 17 17 17 17 17 17 17 17 17 16 16 16 16 16 16 16 16 16 16 16 16 15 15 15 15 15 15 15 15 15 15 15 14 14 14 14 14 14 14
17 17 17 17 17 17 17 17 17 17 17 17 16 16 16 16 16 16 16 16 16 16 16 16 16 15 15 15 15 15 15 15 15 15 15 14 14 14 14 14 14 14 14
17 16 16 16 16 16 16 16 16 16 16 16 16 16 16 16 16 16 16 16 16 16 16 16 15 15 15 15 14 14 14 14 14 14 14 14 14 14 13 13 13 13 13
16 16 16 16 16 16 16 16 16 16 16 16 16 16 16 16 16 16 16 16 16 16 16 15 15 15 15 15 14 14 14 14 14 14 14 14 14 13 13 13 13 13 13
16 16 15 15 15 16 16 16 16 16 16 16 16 16 16 16 16 15 15 15 15 15 15 15 15 15 15 15 14 14 14 14 14 14 14 13 13 13 13 13 13 13 13
15 15 15 15 15 15 16 16 16 16 16 16 16 16 16 15 15 15 15 15 15 15 15 15 15 15 15 14 14 14 14 14 14 13 13 13 13 13 13 12 12 12 12
14 15 15 15 15 15 15 15 15 15 15 15 15 15 15 15 15 15 15 15 15 15 15 15 15 15 14 14 14 14 14 14 13 13 13 13 13 12 12 12 12 12 12
14 14 14 15 15 15 15 15 15 15 15 15 15 15 15 15 15 15 15 15 15 15 15 15 15 14 14 14 14 14 13 13 13 13 13 12 12 12 12 12 12 12 12
14 14 14 14 14 15 15 15 15 15 14 14 15 15 15 15 15 15 15 14 14 14 14 14 14 14 14 14 13 13 13 13 13 13 12 12 12 12 12 11 11 11 11
14 14 14 14 14 14 14 14 14 14 14 14 14 14 15 14 14 14 14 14 14 14 14 14 14 14 13 13 13 13 13 12 12 12 12 12 12 11 11 11 11 10 10
14 14 14 14 14 14 14 14 14 14 14 14 14 14 14 14 14 14 14 14 14 14 14 13 13 13 13 13 13 12 12 12 12 12 11 11 11 11 11 10 10 10 10
13 13 13 13 13 13 13 14 14 14 14 14 14 14 14 14 14 14 14 13 13 13 13 13 13 13 13 12 12 12 12 12 11 11 11 11 11 11 10 10 10 9 9
13 13 13 13 13 13 13 13 13 13 13 14 14 13 14 13 13 13 13 13 13 13 13 12 12 12 12 12 12 12 11 11 11 11 11 11 10 10 10 10 9 9 9
13 13 13 13 13 13 13 13 13 13 13 13 13 13 13 13 13 13 13 13 13 12 12 12 12 12 11 11 11 11 11 11 11 10 10 10 10 10 9 9 9 9 9
12 12 12 12 12 12 12 12 13 13 13 13 13 13 13 13 13 13 12 12 12 12 12 12 11 11 11 11 11 11 10 10 10 10 10 10 9 9 9 9 9 9 9
12 12 12 12 12 12 12 12 12 12 12 12 12 12 12 12 12 12 12 12 12 11 11 11 11 11 11 10 10 10 10 10 10 10 9 9 9 9 9 9 9 9 9
11 11 11 12 12 12 12 12 12 12 12 12 12 12 12 12 12 12 11 11 11 11 11 11 10 10 10 10 10 10 10 9 9 9 9 9 9 8 8 8 8 8 8
11 11 11 11 11 11 11 11 12 12 12 12 11 11 11 11 11 11 11 11 11 11 10 10 10 10 10 9 9 9 9 9 9 9 9 8 8 8 8 8 8 8 8
10 10 11 11 11 11 11 11 11 11 11 11 11 11 11 11 11 11 11 10 10 10 10 10 10 9 9 9 9 9 8 8 8 8 8 8 8 8 8 8 7 7 7
10 10 10 10 10 10 11 11 11 11 11 11 11 11 11 10 10 10 10 10 10 10 10 9 9 9 9 9 9 8 8 8 7 7 7 7 7 7 7 7 7 7 7
9 9 10 10 10 10 10 10 10 10 11 10 10 10 10 10 10 10 10 10 10 9 9 9 9 9 9 8 8 8 8 7 7 6 6 7 7 7 7 7 6 6 6
9 9 9 9 9 9 10 10 10 10 10 10 10 10 10 10 10 10 9 9 9 9 9 9 9 8 8 8 8 7 7 7 7 6 6 6 6 6 6 6 6 6 5